Time,TemperatureF,DewpointF,PressureIn,WindDirection,WindDirectionDegrees,WindSpeedMPH,WindSpeedGustMPH,Humidity,HourlyPrecipIn,Conditions,Clouds,dailyrainin,SolarRadiationWatts/m^2,SoftwareType,DateUTC
2013-11-11 00:01:00,42.2,28.9,30.21,NNW,328,4.0,4.0,59,0.00,,,0.00,0,Wunderground v.1.15,2013-11-11 05:01:00,
2013-11-11 00:02:00,42.2,28.9,30.21,WNW,286,4.0,4.0,59,0.00,,,0.00,0,Wunderground v.1.15,2013-11-11 05:02:00,
2013-11-11 00:06:00,42.1,28.8,30.21,WNW,299,3.0,6.0,59,0.00,,,0.00,0,Wunderground v.1.15,2013-11-11 05:06:00,
2013-11-11 00:07:00,42.0,28.7,30.22,WNW,284,4.0,6.0,59,0.00,,,0.00,0,Wunderground v.1.15,2013-11-11 05:07:00,
2013-11-11 00:08:00,42.0,28.7,30.22,WNW,298,4.0,6.0,59,0.00,,,0.00,0,Wunderground v.1.15,2013-11-11 05:08:00,
2013-11-11 00:09:00,42.0,28.7,30.22,West,271,4.0,6.0,59,0.00,,,0.00,0,Wunderground v.1.15,2013-11-11 05:09:00,
2013-11-11 00:14:00,42.0,29.1,30.22,WNW,294,4.0,4.0,60,0.00,,,0.00,0,Wunderground v.1.15,2013-11-11 05:14:00,
2013-11-11 00:15:00,42.0,29.1,30.22,WNW,300,3.0,4.0,60,0.00,,,0.00,0,Wunderground v.1.15,2013-11-11 05:15:00,
2013-11-11 00:16:00,42.0,29.1,30.22,WNW,290,3.0,4.0,60,0.00,,,0.00,0,Wunderground v.1.15,2013-11-11 05:16:00,
2013-11-11 00:17:00,41.9,29.0,30.22,WNW,290,3.0,4.0,60,0.00,,,0.00,0,Wunderground v.1.15,2013-11-11 05:17:00,
2013-11-11 00:21:00,41.9,29.4,30.23,West,266,2.0,2.0,61,0.00,,,0.00,0,Wunderground v.1.15,2013-11-11 05:21:00,
2013-11-11 00:23:00,41.8,29.3,30.23,West,265,2.0,2.0,61,0.00,,,0.00,0,Wunderground v.1.15,2013-11-11 05:23:00,
2013-11-11 00:25:00,41.8,29.3,30.23,West,266,1.0,2.0,61,0.00,,,0.00,0,Wunderground v.1.15,2013-11-11 05:25:00,
2013-11-11 00:26:00,41.8,29.3,30.23,WSW,250,1.0,2.0,61,0.00,,,0.00,0,Wunderground v.1.15,2013-11-11 05:26:00,
2013-11-11 00:27:00,41.7,29.2,30.23,SW,232,1.0,2.0,61,0.00,,,0.00,0,Wunderground v.1.15,2013-11-11 05:27:00,
2013-11-11 00:31:00,41.6,29.5,30.23,West,272,1.0,2.0,62,0.00,,,0.00,0,Wunderground v.1.15,2013-11-11 05:31:00,
2013-11-11 00:32:00,41.6,29.5,30.23,West,278,1.0,2.0,62,0.00,,,0.00,0,Wunderground v.1.15,2013-11-11 05:32:00,
2013-11-11 00:33:00,41.6,29.5,30.23,West,278,1.0,2.0,62,0.00,,,0.00,0,Wunderground v.1.15,2013-11-11 05:33:00,
2013-11-11 00:36:00,41.5,29.4,30.23,NW,314,1.0,2.0,62,0.00,,,0.00,0,Wunderground v.1.15,2013-11-11 05:36:00,
2013-11-11 00:37:00,41.4,29.3,30.23,WNW,283,1.0,2.0,62,0.00,,,0.00,0,Wunderground v.1.15,2013-11-11 05:37:00,
2013-11-11 00:39:00,41.2,29.5,30.23,WNW,284,1.0,2.0,63,0.00,,,0.00,0,Wunderground v.1.15,2013-11-11 05:39:00,
2013-11-11 00:41:00,41.0,29.4,30.23,West,269,2.0,2.0,63,0.00,,,0.00,0,Wunderground v.1.15,2013-11-11 05:41:00,
2013-11-11 00:43:00,41.0,29.4,30.23,NW,311,2.0,3.0,63,0.00,,,0.00,0,Wunderground v.1.15,2013-11-11 05:43:00,
2013-11-11 00:44:00,41.0,29.7,30.23,West,281,2.0,3.0,64,0.00,,,0.00,0,Wunderground v.1.15,2013-11-11 05:44:00,
2013-11-11 00:46:00,40.9,29.7,30.23,WNW,293,2.0,3.0,64,0.00,,,0.00,0,Wunderground v.1.15,2013-11-11 05:46:00,
2013-11-11 00:48:00,40.9,29.7,30.23,WNW,286,2.0,4.0,64,0.00,,,0.00,0,Wunderground v.1.15,2013-11-11 05:48:00,
2013-11-11 00:52:00,40.9,29.7,30.23,West,269,2.0,4.0,64,0.00,,,0.00,0,Wunderground v.1.15,2013-11-11 05:52:00,
2013-11-11 00:53:00,40.9,29.7,30.23,NNE,24,3.0,4.0,64,0.00,,,0.00,0,Wunderground v.1.15,2013-11-11 05:53:00,
2013-11-11 00:54:00,40.9,29.7,30.23,WNW,286,3.0,4.0,64,0.00,,,0.00,0,Wunderground v.1.15,2013-11-11 05:54:00,
2013-11-11 00:57:00,40.9,29.7,30.24,WNW,291,3.0,7.0,64,0.00,,,0.00,0,Wunderground v.1.15,2013-11-11 05:57:00,
2013-11-11 00:59:00,40.9,29.7,30.24,WNW,293,3.0,7.0,64,0.00,,,0.00,0,Wunderground v.1.15,2013-11-11 05:59:00,
2013-11-11 01:00:00,40.9,30.0,30.24,WNW,286,3.0,3.0,65,0.00,,,0.00,0,Wunderground v.1.15,2013-11-11 06:00:00,
2013-11-11 01:01:00,40.9,30.0,30.24,WNW,296,3.0,3.0,65,0.00,,,0.00,0,Wunderground v.1.15,2013-11-11 06:01:00,
2013-11-11 01:02:00,40.9,30.0,30.24,WNW,287,3.0,3.0,65,0.00,,,0.00,0,Wunderground v.1.15,2013-11-11 06:02:00,
2013-11-11 01:03:00,40.9,30.0,30.24,NW,306,3.0,3.0,65,0.00,,,0.00,0,Wunderground v.1.15,2013-11-11 06:03:00,
2013-11-11 01:06:00,40.8,29.9,30.24,WNW,303,3.0,4.0,65,0.00,,,0.00,0,Wunderground v.1.15,2013-11-11 06:06:00,
2013-11-11 01:08:00,40.8,29.9,30.24,West,261,3.0,4.0,65,0.00,,,0.00,0,Wunderground v.1.15,2013-11-11 06:08:00,
2013-11-11 01:09:00,40.8,29.9,30.24,WNW,287,3.0,4.0,65,0.00,,,0.00,0,Wunderground v.1.15,2013-11-11 06:09:00,
2013-11-11 01:14:00,40.9,30.0,30.25,WNW,284,3.0,5.0,65,0.00,,,0.00,0,Wunderground v.1.15,2013-11-11 06:14:00,
2013-11-11 01:15:00,40.9,30.0,30.25,West,275,3.0,5.0,65,0.00,,,0.00,0,Wunderground v.1.15,2013-11-11 06:15:00,
2013-11-11 01:16:00,40.9,30.0,30.25,WNW,289,4.0,5.0,65,0.00,,,0.00,0,Wunderground v.1.15,2013-11-11 06:16:00,
2013-11-11 01:18:00,41.0,30.1,30.25,NW,311,4.0,7.0,65,0.00,,,0.00,0,Wunderground v.1.15,2013-11-11 06:18:00,
2013-11-11 01:20:00,41.0,30.1,30.25,West,279,4.0,4.0,65,0.00,,,0.00,0,Wunderground v.1.15,2013-11-11 06:20:00,
2013-11-11 01:23:00,41.1,30.2,30.25,NW,313,4.0,4.0,65,0.00,,,0.00,0,Wunderground v.1.15,2013-11-11 06:23:00,
2013-11-11 01:24:00,41.1,29.8,30.25,North,355,4.0,5.0,64,0.00,,,0.00,0,Wunderground v.1.15,2013-11-11 06:24:00,
2013-11-11 01:26:00,41.1,29.8,30.25,WNW,288,4.0,5.0,64,0.00,,,0.00,0,Wunderground v.1.15,2013-11-11 06:26:00,
2013-11-11 01:29:00,41.2,29.9,30.25,WNW,302,4.0,5.0,64,0.00,,,0.00,0,Wunderground v.1.15,2013-11-11 06:29:00,
2013-11-11 01:31:00,41.2,29.9,30.25,NW,324,4.0,4.0,64,0.00,,,0.00,0,Wunderground v.1.15,2013-11-11 06:31:00,
2013-11-11 01:33:00,41.2,29.9,30.25,WNW,300,4.0,4.0,64,0.00,,,0.00,0,Wunderground v.1.15,2013-11-11 06:33:00,
2013-11-11 01:35:00,41.2,29.9,30.25,NW,320,3.0,6.0,64,0.00,,,0.00,0,Wunderground v.1.15,2013-11-11 06:35:00,
2013-11-11 01:37:00,41.1,29.8,30.26,NW,313,3.0,6.0,64,0.00,,,0.00,0,Wunderground v.1.15,2013-11-11 06:37:00,
2013-11-11 01:38:00,41.1,29.8,30.26,NW,311,3.0,6.0,64,0.00,,,0.00,0,Wunderground v.1.15,2013-11-11 06:38:00,
2013-11-11 01:40:00,41.1,29.8,30.25,WNW,298,4.0,4.0,64,0.00,,,0.00,0,Wunderground v.1.15,2013-11-11 06:40:00,
2013-11-11 01:42:00,41.1,29.8,30.25,WNW,298,4.0,6.0,64,0.00,,,0.00,0,Wunderground v.1.15,2013-11-11 06:42:00,
2013-11-11 01:45:00,41.0,29.7,30.25,NW,309,4.0,6.0,64,0.00,,,0.00,0,Wunderground v.1.15,2013-11-11 06:45:00,
2013-11-11 01:46:00,41.0,29.7,30.25,West,274,4.0,6.0,64,0.00,,,0.00,0,Wunderground v.1.15,2013-11-11 06:46:00,
2013-11-11 01:50:00,40.9,30.0,30.25,WNW,294,3.0,4.0,65,0.00,,,0.00,0,Wunderground v.1.15,2013-11-11 06:50:00,
2013-11-11 01:54:00,40.8,29.9,30.25,NW,325,3.0,5.0,65,0.00,,,0.00,0,Wunderground v.1.15,2013-11-11 06:54:00,
2013-11-11 01:55:00,40.7,29.8,30.25,NW,319,3.0,5.0,65,0.00,,,0.00,0,Wunderground v.1.15,2013-11-11 06:55:00,
2013-11-11 01:56:00,40.7,29.8,30.25,NW,323,2.0,5.0,65,0.00,,,0.00,0,Wunderground v.1.15,2013-11-11 06:56:00,
2013-11-11 01:58:00,40.7,29.8,30.25,WNW,285,2.0,5.0,65,0.00,,,0.00,0,Wunderground v.1.15,2013-11-11 06:58:00,
2013-11-11 02:02:00,40.6,29.7,30.26,West,269,2.0,2.0,65,0.00,,,0.00,0,Wunderground v.1.15,2013-11-11 07:02:00,
2013-11-11 02:04:00,40.6,29.7,30.26,NW,320,2.0,4.0,65,0.00,,,0.00,0,Wunderground v.1.15,2013-11-11 07:04:00,
2013-11-11 02:06:00,40.6,29.7,30.26,WNW,290,2.0,4.0,65,0.00,,,0.00,0,Wunderground v.1.15,2013-11-11 07:06:00,
2013-11-11 02:07:00,40.6,29.7,30.26,WNW,302,2.0,4.0,65,0.00,,,0.00,0,Wunderground v.1.15,2013-11-11 07:07:00,
2013-11-11 02:10:00,40.5,29.7,30.26,West,269,2.0,4.0,65,0.00,,,0.00,0,Wunderground v.1.15,2013-11-11 07:10:00,
2013-11-11 02:11:00,40.5,29.7,30.26,North,5,2.0,4.0,65,0.00,,,0.00,0,Wunderground v.1.15,2013-11-11 07:11:00,
2013-11-11 02:12:00,40.5,29.7,30.26,West,278,3.0,4.0,65,0.00,,,0.00,0,Wunderground v.1.15,2013-11-11 07:12:00,
2013-11-11 02:13:00,40.5,29.7,30.26,NW,325,3.0,5.0,65,0.00,,,0.00,0,Wunderground v.1.15,2013-11-11 07:13:00,
2013-11-11 02:14:00,40.5,29.7,30.26,NW,321,3.0,5.0,65,0.00,,,0.00,0,Wunderground v.1.15,2013-11-11 07:14:00,
2013-11-11 02:17:00,40.4,29.6,30.26,NW,304,3.0,5.0,65,0.00,,,0.00,0,Wunderground v.1.15,2013-11-11 07:17:00,
2013-11-11 02:19:00,40.4,29.9,30.26,NNW,335,3.0,5.0,66,0.00,,,0.00,0,Wunderground v.1.15,2013-11-11 07:19:00,
2013-11-11 02:21:00,40.4,29.9,30.27,NW,304,3.0,4.0,66,0.00,,,0.00,0,Wunderground v.1.15,2013-11-11 07:21:00,
2013-11-11 02:25:00,40.3,29.8,30.26,NNW,343,3.0,4.0,66,0.00,,,0.00,0,Wunderground v.1.15,2013-11-11 07:25:00,
2013-11-11 02:26:00,40.3,29.8,30.26,NW,320,3.0,4.0,66,0.00,,,0.00,0,Wunderground v.1.15,2013-11-11 07:26:00,
2013-11-11 02:27:00,40.3,29.8,30.26,WNW,289,3.0,5.0,66,0.00,,,0.00,0,Wunderground v.1.15,2013-11-11 07:27:00,
2013-11-11 02:31:00,40.3,29.8,30.26,WNW,282,3.0,3.0,66,0.00,,,0.00,0,Wunderground v.1.15,2013-11-11 07:31:00,
2013-11-11 02:33:00,40.3,29.8,30.26,NNW,327,2.0,3.0,66,0.00,,,0.00,0,Wunderground v.1.15,2013-11-11 07:33:00,
2013-11-11 02:34:00,40.3,29.8,30.26,WNW,298,2.0,3.0,66,0.00,,,0.00,0,Wunderground v.1.15,2013-11-11 07:34:00,
2013-11-11 02:36:00,40.3,29.8,30.26,NW,308,2.0,4.0,66,0.00,,,0.00,0,Wunderground v.1.15,2013-11-11 07:36:00,
2013-11-11 02:39:00,40.3,29.8,30.26,West,279,2.0,4.0,66,0.00,,,0.00,0,Wunderground v.1.15,2013-11-11 07:39:00,
2013-11-11 02:41:00,40.3,29.8,30.26,West,280,2.0,2.0,66,0.00,,,0.00,0,Wunderground v.1.15,2013-11-11 07:41:00,
2013-11-11 02:42:00,40.3,29.8,30.26,West,280,2.0,2.0,66,0.00,,,0.00,0,Wunderground v.1.15,2013-11-11 07:42:00,
2013-11-11 02:44:00,40.2,29.7,30.27,West,277,2.0,2.0,66,0.00,,,0.00,0,Wunderground v.1.15,2013-11-11 07:44:00,
2013-11-11 02:47:00,40.2,29.7,30.27,SE,133,1.0,5.0,66,0.00,,,0.00,0,Wunderground v.1.15,2013-11-11 07:47:00,
2013-11-11 02:48:00,40.2,29.7,30.27,SE,129,1.0,5.0,66,0.00,,,0.00,0,Wunderground v.1.15,2013-11-11 07:48:00,
2013-11-11 02:50:00,40.1,29.6,30.27,SE,139,1.0,4.0,66,0.00,,,0.00,0,Wunderground v.1.15,2013-11-11 07:50:00,
2013-11-11 02:51:00,40.1,29.6,30.27,SE,132,1.0,4.0,66,0.00,,,0.00,0,Wunderground v.1.15,2013-11-11 07:51:00,
2013-11-11 02:53:00,40.1,29.6,30.27,SE,132,1.0,4.0,66,0.00,,,0.00,0,Wunderground v.1.15,2013-11-11 07:53:00,
2013-11-11 02:55:00,40.1,29.6,30.27,SE,132,2.0,4.0,66,0.00,,,0.00,0,Wunderground v.1.15,2013-11-11 07:55:00,
2013-11-11 02:57:00,40.1,29.6,30.27,SE,132,1.0,4.0,66,0.00,,,0.00,0,Wunderground v.1.15,2013-11-11 07:57:00,
2013-11-11 03:01:00,39.9,29.8,30.27,SSW,194,1.0,1.0,67,0.00,,,0.00,0,Wunderground v.1.15,2013-11-11 08:01:00,
2013-11-11 03:02:00,39.9,29.8,30.27,SW,223,1.0,1.0,67,0.00,,,0.00,0,Wunderground v.1.15,2013-11-11 08:02:00,
2013-11-11 03:04:00,39.8,29.7,30.27,SW,223,0.0,1.0,67,0.00,,,0.00,0,Wunderground v.1.15,2013-11-11 08:04:00,
2013-11-11 03:07:00,39.8,29.7,30.27,SW,223,0.0,1.0,67,0.00,,,0.00,0,Wunderground v.1.15,2013-11-11 08:07:00,
2013-11-11 03:08:00,39.7,29.6,30.27,WSW,237,1.0,2.0,67,0.00,,,0.00,0,Wunderground v.1.15,2013-11-11 08:08:00,
2013-11-11 03:12:00,39.6,29.5,30.27,West,277,0.0,1.0,67,0.00,,,0.00,0,Wunderground v.1.15,2013-11-11 08:12:00,
2013-11-11 03:13:00,39.5,29.4,30.26,West,277,0.0,1.0,67,0.00,,,0.00,0,Wunderground v.1.15,2013-11-11 08:13:00,
2013-11-11 03:14:00,39.4,29.7,30.27,West,277,1.0,1.0,68,0.00,,,0.00,0,Wunderground v.1.15,2013-11-11 08:14:00,
2013-11-11 03:18:00,39.1,29.4,30.27,West,277,0.0,1.0,68,0.00,,,0.00,0,Wunderground v.1.15,2013-11-11 08:18:00,
2013-11-11 03:19:00,39.1,29.4,30.27,West,277,0.0,1.0,68,0.00,,,0.00,0,Wunderground v.1.15,2013-11-11 08:19:00,
2013-11-11 03:20:00,39.0,29.3,30.27,West,277,0.0,1.0,68,0.00,,,0.00,0,Wunderground v.1.15,2013-11-11 08:20:00,
2013-11-11 03:22:00,38.9,29.6,30.27,West,277,0.0,1.0,69,0.00,,,0.00,0,Wunderground v.1.15,2013-11-11 08:22:00,
2013-11-11 03:23:00,38.8,29.5,30.27,West,277,0.0,1.0,69,0.00,,,0.00,0,Wunderground v.1.15,2013-11-11 08:23:00,
2013-11-11 03:24:00,38.8,29.5,30.27,West,277,0.0,1.0,69,0.00,,,0.00,0,Wunderground v.1.15,2013-11-11 08:24:00,
2013-11-11 03:25:00,38.7,29.4,30.27,West,277,0.0,1.0,69,0.00,,,0.00,0,Wunderground v.1.15,2013-11-11 08:25:00,
2013-11-11 03:27:00,38.5,29.6,30.27,West,277,0.0,1.0,70,0.00,,,0.00,0,Wunderground v.1.15,2013-11-11 08:27:00,
2013-11-11 03:29:00,38.3,29.4,30.27,WNW,290,0.0,2.0,70,0.00,,,0.00,0,Wunderground v.1.15,2013-11-11 08:29:00,
2013-11-11 03:30:00,38.2,29.3,30.27,WNW,293,0.0,1.0,70,0.00,,,0.00,0,Wunderground v.1.15,2013-11-11 08:30:00,
2013-11-11 03:32:00,38.0,29.1,30.27,WNW,293,0.0,1.0,70,0.00,,,0.00,0,Wunderground v.1.15,2013-11-11 08:32:00,
2013-11-11 03:37:00,37.7,29.1,30.27,NW,315,1.0,1.0,71,0.00,,,0.00,0,Wunderground v.1.15,2013-11-11 08:37:00,
2013-11-11 03:38:00,37.7,29.1,30.27,NW,315,1.0,1.0,71,0.00,,,0.00,0,Wunderground v.1.15,2013-11-11 08:38:00,
2013-11-11 03:39:00,37.7,29.1,30.27,NW,315,1.0,1.0,71,0.00,,,0.00,0,Wunderground v.1.15,2013-11-11 08:39:00,
2013-11-11 03:42:00,37.7,29.1,30.27,NW,324,1.0,1.0,71,0.00,,,0.00,0,Wunderground v.1.15,2013-11-11 08:42:00,
2013-11-11 03:43:00,37.7,29.1,30.27,NW,324,1.0,1.0,71,0.00,,,0.00,0,Wunderground v.1.15,2013-11-11 08:43:00,
2013-11-11 03:44:00,37.7,29.1,30.27,NNW,329,1.0,1.0,71,0.00,,,0.00,0,Wunderground v.1.15,2013-11-11 08:44:00,
2013-11-11 03:45:00,37.7,29.1,30.27,NNW,329,1.0,1.0,71,0.00,,,0.00,0,Wunderground v.1.15,2013-11-11 08:45:00,
2013-11-11 03:49:00,37.7,29.1,30.27,NW,320,1.0,1.0,71,0.00,,,0.00,0,Wunderground v.1.15,2013-11-11 08:49:00,
2013-11-11 03:51:00,37.7,29.1,30.27,NW,320,1.0,1.0,71,0.00,,,0.00,0,Wunderground v.1.15,2013-11-11 08:51:00,
2013-11-11 03:53:00,37.8,28.9,30.27,NW,320,1.0,1.0,70,0.00,,,0.00,0,Wunderground v.1.15,2013-11-11 08:53:00,
2013-11-11 03:54:00,37.8,28.9,30.27,NW,315,1.0,2.0,70,0.00,,,0.00,0,Wunderground v.1.15,2013-11-11 08:54:00,
2013-11-11 03:56:00,37.9,29.0,30.27,NW,304,1.0,3.0,70,0.00,,,0.00,0,Wunderground v.1.15,2013-11-11 08:56:00,
2013-11-11 03:59:00,38.1,29.2,30.27,NW,304,1.0,3.0,70,0.00,,,0.00,0,Wunderground v.1.15,2013-11-11 08:59:00,
2013-11-11 04:01:00,38.1,28.8,30.27,NW,304,1.0,1.0,69,0.00,,,0.00,0,Wunderground v.1.15,2013-11-11 09:01:00,
2013-11-11 04:02:00,38.2,28.9,30.27,NW,304,1.0,1.0,69,0.00,,,0.00,0,Wunderground v.1.15,2013-11-11 09:02:00,
2013-11-11 04:05:00,38.3,29.0,30.26,NW,304,1.0,1.0,69,0.00,,,0.00,0,Wunderground v.1.15,2013-11-11 09:05:00,
2013-11-11 04:06:00,38.3,29.0,30.26,NW,304,1.0,1.0,69,0.00,,,0.00,0,Wunderground v.1.15,2013-11-11 09:06:00,
2013-11-11 04:07:00,38.3,29.0,30.26,NW,304,0.0,1.0,69,0.00,,,0.00,0,Wunderground v.1.15,2013-11-11 09:07:00,
2013-11-11 04:12:00,38.4,29.1,30.26,WNW,303,0.0,0.0,69,0.00,,,0.00,0,Wunderground v.1.15,2013-11-11 09:12:00,
2013-11-11 04:13:00,38.4,29.1,30.26,WNW,303,0.0,1.0,69,0.00,,,0.00,0,Wunderground v.1.15,2013-11-11 09:13:00,
2013-11-11 04:14:00,38.4,29.1,30.26,WNW,292,0.0,1.0,69,0.00,,,0.00,0,Wunderground v.1.15,2013-11-11 09:14:00,
2013-11-11 04:15:00,38.5,29.2,30.26,WNW,292,0.0,1.0,69,0.00,,,0.00,0,Wunderground v.1.15,2013-11-11 09:15:00,
2013-11-11 04:16:00,38.5,28.9,30.26,WNW,292,0.0,1.0,68,0.00,,,0.00,0,Wunderground v.1.15,2013-11-11 09:16:00,
2013-11-11 04:18:00,38.5,28.9,30.26,WNW,292,1.0,1.0,68,0.00,,,0.00,0,Wunderground v.1.15,2013-11-11 09:18:00,
2013-11-11 04:21:00,38.4,29.1,30.27,WNW,292,0.0,1.0,69,0.00,,,0.00,0,Wunderground v.1.15,2013-11-11 09:21:00,
2013-11-11 04:24:00,37.9,29.0,30.27,WNW,292,1.0,1.0,70,0.00,,,0.00,0,Wunderground v.1.15,2013-11-11 09:24:00,
2013-11-11 04:26:00,37.7,28.8,30.27,WNW,292,1.0,1.0,70,0.00,,,0.00,0,Wunderground v.1.15,2013-11-11 09:26:00,
2013-11-11 04:29:00,37.5,28.9,30.27,WNW,303,1.0,1.0,71,0.00,,,0.00,0,Wunderground v.1.15,2013-11-11 09:29:00,
2013-11-11 04:31:00,37.3,28.8,30.27,WNW,303,1.0,1.0,71,0.00,,,0.00,0,Wunderground v.1.15,2013-11-11 09:31:00,
2013-11-11 04:32:00,37.3,28.8,30.27,WNW,303,1.0,1.0,71,0.00,,,0.00,0,Wunderground v.1.15,2013-11-11 09:32:00,
2013-11-11 04:33:00,37.3,28.8,30.27,WNW,303,1.0,1.0,71,0.00,,,0.00,0,Wunderground v.1.15,2013-11-11 09:33:00,
2013-11-11 04:34:00,37.3,28.8,30.27,WNW,303,1.0,1.0,71,0.00,,,0.00,0,Wunderground v.1.15,2013-11-11 09:34:00,
2013-11-11 04:35:00,37.2,28.7,30.27,WNW,303,1.0,1.0,71,0.00,,,0.00,0,Wunderground v.1.15,2013-11-11 09:35:00,
2013-11-11 04:37:00,37.2,28.7,30.27,WNW,303,1.0,1.0,71,0.00,,,0.00,0,Wunderground v.1.15,2013-11-11 09:37:00,
2013-11-11 04:40:00,37.1,28.6,30.27,WNW,303,0.0,1.0,71,0.00,,,0.00,0,Wunderground v.1.15,2013-11-11 09:40:00,
2013-11-11 04:41:00,37.1,28.6,30.27,WNW,303,0.0,0.0,71,0.00,,,0.00,0,Wunderground v.1.15,2013-11-11 09:41:00,
2013-11-11 04:43:00,37.1,28.6,30.27,WNW,303,0.0,1.0,71,0.00,,,0.00,0,Wunderground v.1.15,2013-11-11 09:43:00,
2013-11-11 04:45:00,37.1,28.6,30.28,WNW,303,0.0,1.0,71,0.00,,,0.00,0,Wunderground v.1.15,2013-11-11 09:45:00,
2013-11-11 04:46:00,37.2,28.7,30.27,WNW,303,0.0,1.0,71,0.00,,,0.00,0,Wunderground v.1.15,2013-11-11 09:46:00,
2013-11-11 04:48:00,37.2,28.7,30.28,WNW,303,0.0,1.0,71,0.00,,,0.00,0,Wunderground v.1.15,2013-11-11 09:48:00,
2013-11-11 04:49:00,37.2,28.7,30.28,WNW,303,0.0,1.0,71,0.00,,,0.00,0,Wunderground v.1.15,2013-11-11 09:49:00,
2013-11-11 04:52:00,37.2,28.7,30.28,WNW,303,0.0,0.0,71,0.00,,,0.00,0,Wunderground v.1.15,2013-11-11 09:52:00,
2013-11-11 04:53:00,37.2,29.0,30.28,WNW,303,0.0,0.0,72,0.00,,,0.00,0,Wunderground v.1.15,2013-11-11 09:53:00,
2013-11-11 04:55:00,37.2,29.0,30.28,WNW,303,0.0,0.0,72,0.00,,,0.00,0,Wunderground v.1.15,2013-11-11 09:55:00,
2013-11-11 04:57:00,37.2,29.0,30.28,WNW,303,0.0,0.0,72,0.00,,,0.00,0,Wunderground v.1.15,2013-11-11 09:57:00,
2013-11-11 05:00:00,37.1,28.9,30.28,WNW,303,0.0,0.0,72,0.00,,,0.00,0,Wunderground v.1.15,2013-11-11 10:00:00,
2013-11-11 05:02:00,37.0,28.8,30.28,WNW,303,0.0,0.0,72,0.00,,,0.00,0,Wunderground v.1.15,2013-11-11 10:02:00,
2013-11-11 05:06:00,37.0,29.1,30.28,WNW,303,0.0,0.0,73,0.00,,,0.00,0,Wunderground v.1.15,2013-11-11 10:06:00,
2013-11-11 05:07:00,37.0,29.1,30.28,WNW,303,0.0,0.0,73,0.00,,,0.00,0,Wunderground v.1.15,2013-11-11 10:07:00,
2013-11-11 05:09:00,37.0,29.1,30.28,WNW,303,0.0,0.0,73,0.00,,,0.00,0,Wunderground v.1.15,2013-11-11 10:09:00,
2013-11-11 05:12:00,36.9,29.1,30.28,WNW,303,0.0,0.0,73,0.00,,,0.00,0,Wunderground v.1.15,2013-11-11 10:12:00,
2013-11-11 05:13:00,36.9,28.7,30.28,WNW,303,0.0,0.0,72,0.00,,,0.00,0,Wunderground v.1.15,2013-11-11 10:13:00,
2013-11-11 05:18:00,36.7,28.9,30.28,WNW,303,0.0,0.0,73,0.00,,,0.00,0,Wunderground v.1.15,2013-11-11 10:18:00,
2013-11-11 05:19:00,36.6,28.8,30.28,WNW,303,0.0,1.0,73,0.00,,,0.00,0,Wunderground v.1.15,2013-11-11 10:19:00,
2013-11-11 05:20:00,36.6,28.8,30.28,WNW,303,0.0,1.0,73,0.00,,,0.00,0,Wunderground v.1.15,2013-11-11 10:20:00,
2013-11-11 05:21:00,36.6,28.8,30.28,WNW,303,0.0,2.0,73,0.00,,,0.00,0,Wunderground v.1.15,2013-11-11 10:21:00,
2013-11-11 05:22:00,36.6,29.1,30.28,WNW,303,0.0,2.0,74,0.00,,,0.00,0,Wunderground v.1.15,2013-11-11 10:22:00,
2013-11-11 05:25:00,36.5,29.0,30.28,WNW,296,0.0,2.0,74,0.00,,,0.00,0,Wunderground v.1.15,2013-11-11 10:25:00,
2013-11-11 05:26:00,36.5,29.0,30.28,WNW,296,0.0,2.0,74,0.00,,,0.00,0,Wunderground v.1.15,2013-11-11 10:26:00,
2013-11-11 05:28:00,36.4,28.9,30.28,WNW,296,0.0,2.0,74,0.00,,,0.00,0,Wunderground v.1.15,2013-11-11 10:28:00,
2013-11-11 05:29:00,36.4,28.9,30.28,WNW,296,0.0,2.0,74,0.00,,,0.00,0,Wunderground v.1.15,2013-11-11 10:29:00,
2013-11-11 05:31:00,36.2,28.7,30.28,WNW,292,1.0,1.0,74,0.00,,,0.00,0,Wunderground v.1.15,2013-11-11 10:31:00,
2013-11-11 05:32:00,36.2,28.7,30.28,WNW,296,1.0,1.0,74,0.00,,,0.00,0,Wunderground v.1.15,2013-11-11 10:32:00,
2013-11-11 05:34:00,36.1,28.9,30.28,WNW,302,1.0,1.0,75,0.00,,,0.00,0,Wunderground v.1.15,2013-11-11 10:34:00,
2013-11-11 05:37:00,36.0,28.8,30.28,WNW,292,1.0,1.0,75,0.00,,,0.00,0,Wunderground v.1.15,2013-11-11 10:37:00,
2013-11-11 05:38:00,36.0,28.8,30.28,WNW,288,1.0,2.0,75,0.00,,,0.00,0,Wunderground v.1.15,2013-11-11 10:38:00,
2013-11-11 05:39:00,35.9,28.7,30.28,WNW,288,1.0,2.0,75,0.00,,,0.00,0,Wunderground v.1.15,2013-11-11 10:39:00,
2013-11-11 05:40:00,35.9,28.7,30.28,WNW,290,1.0,1.0,75,0.00,,,0.00,0,Wunderground v.1.15,2013-11-11 10:40:00,
2013-11-11 05:42:00,35.8,29.0,30.28,WNW,298,1.0,1.0,76,0.00,,,0.00,0,Wunderground v.1.15,2013-11-11 10:42:00,
2013-11-11 05:44:00,35.8,29.0,30.28,WNW,293,1.0,1.0,76,0.00,,,0.00,0,Wunderground v.1.15,2013-11-11 10:44:00,
2013-11-11 05:46:00,35.7,28.9,30.29,WNW,293,1.0,1.0,76,0.00,,,0.00,0,Wunderground v.1.15,2013-11-11 10:46:00,
2013-11-11 05:47:00,35.7,28.9,30.29,WNW,293,1.0,1.0,76,0.00,,,0.00,0,Wunderground v.1.15,2013-11-11 10:47:00,
2013-11-11 05:48:00,35.6,28.8,30.28,WNW,293,1.0,1.0,76,0.00,,,0.00,0,Wunderground v.1.15,2013-11-11 10:48:00,
2013-11-11 05:52:00,35.4,28.9,30.29,WNW,294,1.0,1.0,77,0.00,,,0.00,0,Wunderground v.1.15,2013-11-11 10:52:00,
2013-11-11 05:53:00,35.3,28.8,30.29,WNW,295,1.0,1.0,77,0.00,,,0.00,0,Wunderground v.1.15,2013-11-11 10:53:00,
2013-11-11 05:54:00,35.3,28.8,30.29,WNW,295,1.0,1.0,77,0.00,,,0.00,0,Wunderground v.1.15,2013-11-11 10:54:00,
2013-11-11 05:55:00,35.2,28.7,30.29,WNW,295,1.0,1.0,77,0.00,,,0.00,0,Wunderground v.1.15,2013-11-11 10:55:00,
2013-11-11 05:57:00,35.1,28.6,30.29,WNW,295,1.0,1.0,77,0.00,,,0.00,0,Wunderground v.1.15,2013-11-11 10:57:00,
2013-11-11 05:58:00,35.1,28.6,30.29,WNW,295,1.0,1.0,77,0.00,,,0.00,0,Wunderground v.1.15,2013-11-11 10:58:00,
2013-11-11 06:00:00,35.0,28.5,30.29,WNW,301,1.0,1.0,77,0.00,,,0.00,0,Wunderground v.1.15,2013-11-11 11:00:00,
2013-11-11 06:01:00,35.0,28.8,30.29,WNW,301,1.0,1.0,78,0.00,,,0.00,0,Wunderground v.1.15,2013-11-11 11:01:00,
2013-11-11 06:04:00,35.0,28.8,30.29,WNW,302,1.0,1.0,78,0.00,,,0.00,0,Wunderground v.1.15,2013-11-11 11:04:00,
2013-11-11 06:07:00,35.0,28.8,30.29,NW,304,1.0,1.0,78,0.00,,,0.00,0,Wunderground v.1.15,2013-11-11 11:07:00,
2013-11-11 06:08:00,35.0,28.8,30.29,NW,304,1.0,1.0,78,0.00,,,0.00,0,Wunderground v.1.15,2013-11-11 11:08:00,
2013-11-11 06:11:00,35.0,28.8,30.29,NW,304,1.0,1.0,78,0.00,,,0.00,0,Wunderground v.1.15,2013-11-11 11:11:00,
2013-11-11 06:13:00,35.0,28.5,30.29,NW,304,1.0,1.0,77,0.00,,,0.00,0,Wunderground v.1.15,2013-11-11 11:13:00,
2013-11-11 06:14:00,35.0,28.5,30.29,NW,304,0.0,1.0,77,0.00,,,0.00,0,Wunderground v.1.15,2013-11-11 11:14:00,
2013-11-11 06:15:00,35.0,28.5,30.29,NW,304,0.0,1.0,77,0.00,,,0.00,0,Wunderground v.1.15,2013-11-11 11:15:00,
2013-11-11 06:20:00,35.1,28.6,30.29,NW,304,0.0,0.0,77,0.00,,,0.00,0,Wunderground v.1.15,2013-11-11 11:20:00,
2013-11-11 06:21:00,35.1,28.6,30.29,NW,304,0.0,0.0,77,0.00,,,0.00,0,Wunderground v.1.15,2013-11-11 11:21:00,
2013-11-11 06:22:00,35.1,28.6,30.29,NW,304,0.0,0.0,77,0.00,,,0.00,0,Wunderground v.1.15,2013-11-11 11:22:00,
2013-11-11 06:23:00,35.1,28.6,30.29,NW,304,0.0,0.0,77,0.00,,,0.00,0,Wunderground v.1.15,2013-11-11 11:23:00,
2013-11-11 06:27:00,35.2,28.7,30.29,West,275,0.0,1.0,77,0.00,,,0.00,0,Wunderground v.1.15,2013-11-11 11:27:00,
2013-11-11 06:29:00,35.2,28.7,30.29,South,173,0.0,1.0,77,0.00,,,0.00,0,Wunderground v.1.15,2013-11-11 11:29:00,
2013-11-11 06:30:00,35.2,28.7,30.29,South,171,0.0,0.0,77,0.00,,,0.00,0,Wunderground v.1.15,2013-11-11 11:30:00,
2013-11-11 06:32:00,35.1,28.6,30.29,South,171,0.0,0.0,77,0.00,,,0.00,0,Wunderground v.1.15,2013-11-11 11:32:00,
2013-11-11 06:35:00,35.1,28.6,30.29,South,187,0.0,1.0,77,0.00,,,0.00,0,Wunderground v.1.15,2013-11-11 11:35:00,
2013-11-11 06:36:00,35.1,28.6,30.29,South,190,0.0,1.0,77,0.00,,,0.00,0,Wunderground v.1.15,2013-11-11 11:36:00,
2013-11-11 06:38:00,35.0,28.5,30.29,WNW,293,1.0,1.0,77,0.00,,,0.00,0,Wunderground v.1.15,2013-11-11 11:38:00,
2013-11-11 06:39:00,35.0,28.5,30.29,WNW,293,1.0,1.0,77,0.00,,,0.00,0,Wunderground v.1.15,2013-11-11 11:39:00,
2013-11-11 06:40:00,35.0,28.5,30.29,WNW,293,1.0,1.0,77,0.00,,,0.00,0,Wunderground v.1.15,2013-11-11 11:40:00,
2013-11-11 06:42:00,35.0,28.5,30.29,WNW,293,1.0,1.0,77,0.00,,,0.00,0,Wunderground v.1.15,2013-11-11 11:42:00,
2013-11-11 06:46:00,35.0,28.8,30.29,WNW,293,0.0,1.0,78,0.00,,,0.00,0,Wunderground v.1.15,2013-11-11 11:46:00,
2013-11-11 06:47:00,35.0,28.8,30.29,WNW,293,0.0,1.0,78,0.00,,,0.00,0,Wunderground v.1.15,2013-11-11 11:47:00,
2013-11-11 06:50:00,35.0,28.8,30.29,WNW,293,0.0,0.0,78,0.00,,,0.00,0,Wunderground v.1.15,2013-11-11 11:50:00,
2013-11-11 06:51:00,35.0,28.8,30.29,WNW,293,0.0,0.0,78,0.00,,,0.00,0,Wunderground v.1.15,2013-11-11 11:51:00,
2013-11-11 06:53:00,35.0,28.8,30.29,WNW,293,0.0,0.0,78,0.00,,,0.00,5,Wunderground v.1.15,2013-11-11 11:53:00,
2013-11-11 06:54:00,35.0,28.8,30.29,WNW,293,0.0,0.0,78,0.00,,,0.00,5,Wunderground v.1.15,2013-11-11 11:54:00,
2013-11-11 06:55:00,35.0,28.8,30.29,WNW,293,0.0,0.0,78,0.00,,,0.00,5,Wunderground v.1.15,2013-11-11 11:55:00,
2013-11-11 06:57:00,35.0,28.8,30.29,WNW,293,0.0,0.0,78,0.00,,,0.00,5,Wunderground v.1.15,2013-11-11 11:57:00,
2013-11-11 06:58:00,35.0,28.8,30.29,WNW,293,0.0,0.0,78,0.00,,,0.00,5,Wunderground v.1.15,2013-11-11 11:58:00,
2013-11-11 06:59:00,35.0,28.8,30.30,WNW,293,0.0,0.0,78,0.00,,,0.00,5,Wunderground v.1.15,2013-11-11 11:59:00,
2013-11-11 07:00:00,35.0,28.8,30.30,WNW,293,0.0,0.0,78,0.00,,,0.00,5,Wunderground v.1.15,2013-11-11 12:00:00,
2013-11-11 07:02:00,35.0,28.8,30.30,WNW,285,0.0,2.0,78,0.00,,,0.00,7,Wunderground v.1.15,2013-11-11 12:02:00,
2013-11-11 07:06:00,35.3,29.1,30.29,SE,141,1.0,3.0,78,0.00,,,0.00,7,Wunderground v.1.15,2013-11-11 12:06:00,
2013-11-11 07:09:00,35.5,29.3,30.30,SE,134,2.0,3.0,78,0.00,,,0.00,9,Wunderground v.1.15,2013-11-11 12:09:00,
2013-11-11 07:10:00,35.5,29.3,30.30,SE,134,2.0,2.0,78,0.00,,,0.00,9,Wunderground v.1.15,2013-11-11 12:10:00,
2013-11-11 07:12:00,35.5,29.0,30.30,SSE,161,2.0,2.0,77,0.00,,,0.00,11,Wunderground v.1.15,2013-11-11 12:12:00,
2013-11-11 07:13:00,35.5,29.0,30.30,SSE,161,2.0,2.0,77,0.00,,,0.00,11,Wunderground v.1.15,2013-11-11 12:13:00,
2013-11-11 07:16:00,35.5,29.0,30.30,West,267,1.0,2.0,77,0.00,,,0.00,16,Wunderground v.1.15,2013-11-11 12:16:00,
2013-11-11 07:17:00,35.5,29.0,30.30,WNW,298,1.0,2.0,77,0.00,,,0.00,19,Wunderground v.1.15,2013-11-11 12:17:00,
2013-11-11 07:20:00,35.4,29.2,30.30,WNW,295,1.0,1.0,78,0.00,,,0.00,26,Wunderground v.1.15,2013-11-11 12:20:00,
2013-11-11 07:21:00,35.4,29.2,30.31,WNW,296,1.0,2.0,78,0.00,,,0.00,28,Wunderground v.1.15,2013-11-11 12:21:00,
2013-11-11 07:25:00,35.3,29.1,30.31,WNW,300,1.0,4.0,78,0.00,,,0.00,39,Wunderground v.1.15,2013-11-11 12:25:00,
2013-11-11 07:26:00,35.3,29.1,30.31,WNW,297,2.0,4.0,78,0.00,,,0.00,42,Wunderground v.1.15,2013-11-11 12:26:00,
2013-11-11 07:27:00,35.3,29.1,30.31,WNW,297,2.0,4.0,78,0.00,,,0.00,44,Wunderground v.1.15,2013-11-11 12:27:00,
2013-11-11 07:28:00,35.3,29.1,30.30,NNW,337,2.0,4.0,78,0.00,,,0.00,46,Wunderground v.1.15,2013-11-11 12:28:00,
2013-11-11 07:29:00,35.3,29.1,30.30,NNW,331,1.0,4.0,78,0.00,,,0.00,49,Wunderground v.1.15,2013-11-11 12:29:00,
2013-11-11 07:30:00,35.3,29.1,30.30,West,275,1.0,2.0,78,0.00,,,0.00,49,Wunderground v.1.15,2013-11-11 12:30:00,
2013-11-11 07:32:00,35.6,29.4,30.30,WNW,290,1.0,4.0,78,0.00,,,0.00,47,Wunderground v.1.15,2013-11-11 12:32:00,
2013-11-11 07:35:00,35.8,29.6,30.30,West,277,1.0,4.0,78,0.00,,,0.00,47,Wunderground v.1.15,2013-11-11 12:35:00,
2013-11-11 07:36:00,35.9,29.7,30.30,SSE,148,1.0,4.0,78,0.00,,,0.00,51,Wunderground v.1.15,2013-11-11 12:36:00,
2013-11-11 07:38:00,36.1,29.6,30.30,SE,140,1.0,4.0,77,0.00,,,0.00,54,Wunderground v.1.15,2013-11-11 12:38:00,
2013-11-11 07:39:00,36.1,29.6,30.30,SE,137,2.0,4.0,77,0.00,,,0.00,54,Wunderground v.1.15,2013-11-11 12:39:00,
2013-11-11 07:40:00,36.0,29.5,30.30,SE,135,2.0,2.0,77,0.00,,,0.00,56,Wunderground v.1.15,2013-11-11 12:40:00,
2013-11-11 07:42:00,35.9,29.4,30.30,SE,135,2.0,2.0,77,0.00,,,0.00,54,Wunderground v.1.15,2013-11-11 12:42:00,
2013-11-11 07:43:00,35.7,29.2,30.30,SE,135,2.0,2.0,77,0.00,,,0.00,53,Wunderground v.1.15,2013-11-11 12:43:00,
2013-11-11 07:47:00,35.7,29.5,30.30,WNW,284,2.0,3.0,78,0.00,,,0.00,54,Wunderground v.1.15,2013-11-11 12:47:00,
2013-11-11 07:48:00,35.7,29.5,30.30,WNW,288,2.0,3.0,78,0.00,,,0.00,54,Wunderground v.1.15,2013-11-11 12:48:00,
2013-11-11 07:49:00,35.7,29.5,30.30,WNW,302,1.0,3.0,78,0.00,,,0.00,54,Wunderground v.1.15,2013-11-11 12:49:00,
2013-11-11 07:50:00,35.8,29.3,30.30,WNW,302,1.0,1.0,77,0.00,,,0.00,54,Wunderground v.1.15,2013-11-11 12:50:00,
2013-11-11 07:52:00,35.9,29.7,30.30,WNW,298,1.0,1.0,78,0.00,,,0.00,54,Wunderground v.1.15,2013-11-11 12:52:00,
2013-11-11 07:54:00,36.0,29.5,30.30,WNW,298,1.0,2.0,77,0.00,,,0.00,53,Wunderground v.1.15,2013-11-11 12:54:00,
2013-11-11 07:55:00,36.1,29.9,30.30,WNW,298,1.0,2.0,78,0.00,,,0.00,53,Wunderground v.1.15,2013-11-11 12:55:00,
2013-11-11 07:56:00,36.1,29.9,30.30,WNW,298,1.0,2.0,78,0.00,,,0.00,51,Wunderground v.1.15,2013-11-11 12:56:00,
2013-11-11 08:00:00,36.3,29.8,30.30,WNW,296,1.0,1.0,77,0.00,,,0.00,47,Wunderground v.1.15,2013-11-11 13:00:00,
2013-11-11 08:01:00,36.3,29.8,30.30,WNW,296,1.0,1.0,77,0.00,,,0.00,46,Wunderground v.1.15,2013-11-11 13:01:00,
2013-11-11 08:03:00,36.4,29.9,30.30,WNW,296,1.0,1.0,77,0.00,,,0.00,42,Wunderground v.1.15,2013-11-11 13:03:00,
2013-11-11 08:06:00,36.5,30.0,30.30,WNW,296,0.0,1.0,77,0.00,,,0.00,49,Wunderground v.1.15,2013-11-11 13:06:00,
2013-11-11 08:08:00,36.6,30.1,30.31,WNW,298,0.0,1.0,77,0.00,,,0.00,56,Wunderground v.1.15,2013-11-11 13:08:00,
2013-11-11 08:09:00,36.6,30.1,30.31,WNW,298,0.0,1.0,77,0.00,,,0.00,60,Wunderground v.1.15,2013-11-11 13:09:00,
2013-11-11 08:14:00,36.8,29.9,30.30,WNW,301,1.0,2.0,76,0.00,,,0.00,81,Wunderground v.1.15,2013-11-11 13:14:00,
2013-11-11 08:15:00,36.8,29.9,30.30,WNW,301,1.0,2.0,76,0.00,,,0.00,83,Wunderground v.1.15,2013-11-11 13:15:00,
2013-11-11 08:18:00,36.9,30.0,30.30,NW,306,1.0,2.0,76,0.00,,,0.00,91,Wunderground v.1.15,2013-11-11 13:18:00,
2013-11-11 08:20:00,37.0,30.1,30.30,WNW,298,1.0,1.0,76,0.00,,,0.00,95,Wunderground v.1.15,2013-11-11 13:20:00,
2013-11-11 08:21:00,37.0,30.1,30.30,WNW,298,1.0,1.0,76,0.00,,,0.00,97,Wunderground v.1.15,2013-11-11 13:21:00,
2013-11-11 08:26:00,37.1,30.2,30.30,WNW,300,1.0,1.0,76,0.00,,,0.00,98,Wunderground v.1.15,2013-11-11 13:26:00,
2013-11-11 08:27:00,37.2,30.3,30.30,WNW,300,1.0,1.0,76,0.00,,,0.00,98,Wunderground v.1.15,2013-11-11 13:27:00,
2013-11-11 08:28:00,37.2,30.3,30.30,WNW,300,1.0,1.0,76,0.00,,,0.00,98,Wunderground v.1.15,2013-11-11 13:28:00,
2013-11-11 08:32:00,37.4,30.2,30.30,SE,145,1.0,2.0,75,0.00,,,0.00,104,Wunderground v.1.15,2013-11-11 13:32:00,
2013-11-11 08:33:00,37.4,30.5,30.30,SE,145,0.0,2.0,76,0.00,,,0.00,107,Wunderground v.1.15,2013-11-11 13:33:00,
2013-11-11 08:35:00,37.6,30.4,30.30,SE,145,0.0,2.0,75,0.00,,,0.00,111,Wunderground v.1.15,2013-11-11 13:35:00,
2013-11-11 08:37:00,37.7,30.5,30.30,SE,146,0.0,2.0,75,0.00,,,0.00,113,Wunderground v.1.15,2013-11-11 13:37:00,
2013-11-11 08:38:00,37.7,30.5,30.30,SE,146,0.0,2.0,75,0.00,,,0.00,113,Wunderground v.1.15,2013-11-11 13:38:00,
2013-11-11 08:39:00,37.8,30.9,30.30,SE,146,0.0,2.0,76,0.00,,,0.00,113,Wunderground v.1.15,2013-11-11 13:39:00,
2013-11-11 08:40:00,37.8,30.6,30.30,ESE,122,0.0,4.0,75,0.00,,,0.00,111,Wunderground v.1.15,2013-11-11 13:40:00,
2013-11-11 08:42:00,37.9,30.7,30.29,ESE,117,0.0,4.0,75,0.00,,,0.00,105,Wunderground v.1.15,2013-11-11 13:42:00,
2013-11-11 08:45:00,37.9,30.7,30.29,ESE,119,1.0,4.0,75,0.00,,,0.00,100,Wunderground v.1.15,2013-11-11 13:45:00,
2013-11-11 08:48:00,37.9,30.4,30.29,ESE,121,1.0,4.0,74,0.00,,,0.00,93,Wunderground v.1.15,2013-11-11 13:48:00,
2013-11-11 08:49:00,37.9,30.7,30.29,ESE,121,1.0,4.0,75,0.00,,,0.00,91,Wunderground v.1.15,2013-11-11 13:49:00,
2013-11-11 08:50:00,37.9,30.7,30.29,ESE,121,1.0,1.0,75,0.00,,,0.00,91,Wunderground v.1.15,2013-11-11 13:50:00,
2013-11-11 08:56:00,37.9,31.0,30.29,ESE,121,1.0,1.0,76,0.00,,,0.00,97,Wunderground v.1.15,2013-11-11 13:56:00,
2013-11-11 08:57:00,38.0,31.1,30.29,ESE,121,0.0,1.0,76,0.00,,,0.00,97,Wunderground v.1.15,2013-11-11 13:57:00,
2013-11-11 08:58:00,38.0,31.1,30.29,ESE,121,0.0,1.0,76,0.00,,,0.00,97,Wunderground v.1.15,2013-11-11 13:58:00,
2013-11-11 08:59:00,38.0,31.1,30.29,SW,225,0.0,2.0,76,0.00,,,0.00,95,Wunderground v.1.15,2013-11-11 13:59:00,
2013-11-11 09:00:00,38.1,31.2,30.29,West,269,0.0,3.0,76,0.00,,,0.00,93,Wunderground v.1.15,2013-11-11 14:00:00,
2013-11-11 09:02:00,38.2,31.3,30.29,West,273,0.0,3.0,76,0.00,,,0.00,90,Wunderground v.1.15,2013-11-11 14:02:00,
2013-11-11 09:05:00,38.2,31.0,30.29,West,279,1.0,3.0,75,0.00,,,0.00,93,Wunderground v.1.15,2013-11-11 14:05:00,
2013-11-11 09:07:00,38.3,31.1,30.29,WNW,286,1.0,3.0,75,0.00,,,0.00,95,Wunderground v.1.15,2013-11-11 14:07:00,
2013-11-11 09:09:00,38.4,31.2,30.29,WNW,288,1.0,3.0,75,0.00,,,0.00,91,Wunderground v.1.15,2013-11-11 14:09:00,
2013-11-11 09:11:00,38.5,31.6,30.29,South,169,1.0,2.0,76,0.00,,,0.00,90,Wunderground v.1.15,2013-11-11 14:11:00,
2013-11-11 09:12:00,38.5,31.6,30.29,South,169,1.0,2.0,76,0.00,,,0.00,88,Wunderground v.1.15,2013-11-11 14:12:00,
2013-11-11 09:13:00,38.6,31.7,30.29,South,169,1.0,2.0,76,0.00,,,0.00,84,Wunderground v.1.15,2013-11-11 14:13:00,
2013-11-11 09:17:00,38.8,31.6,30.28,West,264,1.0,2.0,75,0.00,,,0.00,74,Wunderground v.1.15,2013-11-11 14:17:00,
2013-11-11 09:19:00,38.8,31.6,30.28,WNW,284,1.0,2.0,75,0.00,,,0.00,79,Wunderground v.1.15,2013-11-11 14:19:00,
2013-11-11 09:20:00,38.9,31.6,30.28,West,271,1.0,4.0,75,0.00,,,0.00,90,Wunderground v.1.15,2013-11-11 14:20:00,
2013-11-11 09:21:00,38.9,31.6,30.28,WNW,294,1.0,4.0,75,0.00,,,0.00,97,Wunderground v.1.15,2013-11-11 14:21:00,
2013-11-11 09:22:00,38.9,31.6,30.29,WNW,292,1.0,4.0,75,0.00,,,0.00,86,Wunderground v.1.15,2013-11-11 14:22:00,
2013-11-11 09:23:00,38.9,31.6,30.29,WNW,294,1.0,4.0,75,0.00,,,0.00,79,Wunderground v.1.15,2013-11-11 14:23:00,
2013-11-11 09:24:00,39.0,31.7,30.29,West,278,1.0,4.0,75,0.00,,,0.00,79,Wunderground v.1.15,2013-11-11 14:24:00,
2013-11-11 09:26:00,39.1,31.8,30.28,South,187,2.0,4.0,75,0.00,,,0.00,107,Wunderground v.1.15,2013-11-11 14:26:00,
2013-11-11 09:29:00,39.2,31.9,30.28,SE,138,2.0,4.0,75,0.00,,,0.00,125,Wunderground v.1.15,2013-11-11 14:29:00,
2013-11-11 09:30:00,39.3,32.0,30.28,SE,132,2.0,2.0,75,0.00,,,0.00,128,Wunderground v.1.15,2013-11-11 14:30:00,
2013-11-11 09:31:00,39.3,32.0,30.29,ESE,119,2.0,2.0,75,0.00,,,0.00,134,Wunderground v.1.15,2013-11-11 14:31:00,
2013-11-11 09:35:00,39.5,32.2,30.28,SE,145,1.0,5.0,75,0.00,,,0.00,141,Wunderground v.1.15,2013-11-11 14:35:00,
2013-11-11 09:36:00,39.5,32.2,30.28,WNW,286,2.0,5.0,75,0.00,,,0.00,120,Wunderground v.1.15,2013-11-11 14:36:00,
2013-11-11 09:37:00,39.6,32.3,30.28,West,269,2.0,5.0,75,0.00,,,0.00,102,Wunderground v.1.15,2013-11-11 14:37:00,
2013-11-11 09:39:00,39.7,32.4,30.28,West,273,2.0,5.0,75,0.00,,,0.00,102,Wunderground v.1.15,2013-11-11 14:39:00,
2013-11-11 09:41:00,39.8,32.5,30.28,SE,140,2.0,5.0,75,0.00,,,0.00,148,Wunderground v.1.15,2013-11-11 14:41:00,
2013-11-11 09:42:00,39.8,32.2,30.28,SE,133,2.0,5.0,74,0.00,,,0.00,165,Wunderground v.1.15,2013-11-11 14:42:00,
2013-11-11 09:43:00,39.9,32.3,30.28,SE,134,2.0,5.0,74,0.00,,,0.00,163,Wunderground v.1.15,2013-11-11 14:43:00,
2013-11-11 09:46:00,40.1,32.8,30.28,SE,136,2.0,5.0,75,0.00,,,0.00,172,Wunderground v.1.15,2013-11-11 14:46:00,
2013-11-11 09:49:00,40.3,33.0,30.29,SSW,213,2.0,5.0,75,0.00,,,0.00,151,Wunderground v.1.15,2013-11-11 14:49:00,
2013-11-11 09:50:00,40.4,32.8,30.28,SSE,157,2.0,2.0,74,0.00,,,0.00,151,Wunderground v.1.15,2013-11-11 14:50:00,
2013-11-11 09:51:00,40.4,32.8,30.29,ESE,117,2.0,5.0,74,0.00,,,0.00,144,Wunderground v.1.15,2013-11-11 14:51:00,
2013-11-11 09:52:00,40.5,32.9,30.29,SSW,209,2.0,5.0,74,0.00,,,0.00,149,Wunderground v.1.15,2013-11-11 14:52:00,
2013-11-11 09:53:00,40.5,32.9,30.29,SSE,151,2.0,5.0,74,0.00,,,0.00,151,Wunderground v.1.15,2013-11-11 14:53:00,
2013-11-11 09:56:00,40.6,33.0,30.29,SSW,206,2.0,5.0,74,0.00,,,0.00,153,Wunderground v.1.15,2013-11-11 14:56:00,
2013-11-11 09:58:00,40.7,32.7,30.28,ESE,120,2.0,5.0,73,0.00,,,0.00,213,Wunderground v.1.15,2013-11-11 14:58:00,
2013-11-11 09:59:00,40.7,32.7,30.28,ESE,106,3.0,5.0,73,0.00,,,0.00,197,Wunderground v.1.15,2013-11-11 14:59:00,
2013-11-11 10:01:00,40.8,32.8,30.28,SE,125,3.0,5.0,73,0.00,,,0.00,197,Wunderground v.1.15,2013-11-11 15:01:00,
2013-11-11 10:02:00,41.0,33.3,30.28,SE,128,3.0,5.0,74,0.00,,,0.00,415,Wunderground v.1.15,2013-11-11 15:02:00,
2013-11-11 10:03:00,41.1,33.1,30.28,SE,146,3.0,10.0,73,0.00,,,0.00,420,Wunderground v.1.15,2013-11-11 15:03:00,
2013-11-11 10:06:00,41.2,32.9,30.27,SE,146,5.0,10.0,72,0.00,,,0.00,195,Wunderground v.1.15,2013-11-11 15:06:00,
2013-11-11 10:08:00,41.2,33.2,30.27,WSW,246,5.0,10.0,73,0.00,,,0.00,176,Wunderground v.1.15,2013-11-11 15:08:00,
2013-11-11 10:09:00,41.3,33.3,30.27,SE,134,5.0,10.0,73,0.00,,,0.00,432,Wunderground v.1.15,2013-11-11 15:09:00,
2013-11-11 10:10:00,41.4,33.4,30.27,ESE,115,4.0,4.0,73,0.00,,,0.00,424,Wunderground v.1.15,2013-11-11 15:10:00,
2013-11-11 10:14:00,41.9,33.5,30.28,NW,309,4.0,5.0,72,0.00,,,0.00,373,Wunderground v.1.15,2013-11-11 15:14:00,
2013-11-11 10:17:00,42.3,34.3,30.28,SE,136,3.0,5.0,73,0.00,,,0.00,401,Wunderground v.1.15,2013-11-11 15:17:00,
2013-11-11 10:18:00,42.5,33.8,30.28,SSE,153,3.0,5.0,71,0.00,,,0.00,445,Wunderground v.1.15,2013-11-11 15:18:00,
2013-11-11 10:19:00,42.6,34.2,30.28,SE,129,3.0,5.0,72,0.00,,,0.00,494,Wunderground v.1.15,2013-11-11 15:19:00,
2013-11-11 10:21:00,42.8,33.7,30.27,SSW,209,3.0,3.0,70,0.00,,,0.00,274,Wunderground v.1.15,2013-11-11 15:21:00,
2013-11-11 10:22:00,42.8,33.7,30.27,SSE,159,3.0,3.0,70,0.00,,,0.00,248,Wunderground v.1.15,2013-11-11 15:22:00,
2013-11-11 10:23:00,42.8,33.7,30.27,ESE,121,3.0,7.0,70,0.00,,,0.00,239,Wunderground v.1.15,2013-11-11 15:23:00,
2013-11-11 10:26:00,42.7,33.2,30.27,ESE,122,4.0,7.0,69,0.00,,,0.00,134,Wunderground v.1.15,2013-11-11 15:26:00,
2013-11-11 10:28:00,42.6,33.1,30.27,ESE,109,4.0,7.0,69,0.00,,,0.00,169,Wunderground v.1.15,2013-11-11 15:28:00,
2013-11-11 10:30:00,42.6,33.1,30.27,ENE,74,4.0,4.0,69,0.00,,,0.00,149,Wunderground v.1.15,2013-11-11 15:30:00,
2013-11-11 10:32:00,42.7,33.2,30.27,ESE,115,4.0,4.0,69,0.00,,,0.00,225,Wunderground v.1.15,2013-11-11 15:32:00,
2013-11-11 10:34:00,42.7,33.2,30.27,East,95,4.0,8.0,69,0.00,,,0.00,183,Wunderground v.1.15,2013-11-11 15:34:00,
2013-11-11 10:35:00,42.7,33.2,30.27,ESE,110,4.0,8.0,69,0.00,,,0.00,241,Wunderground v.1.15,2013-11-11 15:35:00,
2013-11-11 10:36:00,42.7,33.2,30.26,ESE,107,4.0,8.0,69,0.00,,,0.00,406,Wunderground v.1.15,2013-11-11 15:36:00,
2013-11-11 10:38:00,42.8,33.3,30.26,SSE,161,5.0,8.0,69,0.00,,,0.00,448,Wunderground v.1.15,2013-11-11 15:38:00,
2013-11-11 10:39:00,42.9,33.8,30.26,West,271,5.0,8.0,70,0.00,,,0.00,446,Wunderground v.1.15,2013-11-11 15:39:00,
2013-11-11 10:41:00,43.2,34.1,30.26,SW,216,4.0,4.0,70,0.00,,,0.00,318,Wunderground v.1.15,2013-11-11 15:41:00,
2013-11-11 10:43:00,43.4,33.9,30.26,SSE,148,4.0,4.0,69,0.00,,,0.00,258,Wunderground v.1.15,2013-11-11 15:43:00,
2013-11-11 10:44:00,43.5,33.6,30.26,WSW,240,4.0,4.0,68,0.00,,,0.00,336,Wunderground v.1.15,2013-11-11 15:44:00,
2013-11-11 10:46:00,43.7,33.8,30.26,SE,132,3.0,4.0,68,0.00,,,0.00,350,Wunderground v.1.15,2013-11-11 15:46:00,
2013-11-11 10:47:00,43.7,33.5,30.26,ESE,115,3.0,4.0,67,0.00,,,0.00,410,Wunderground v.1.15,2013-11-11 15:47:00,
2013-11-11 10:48:00,43.8,33.6,30.26,SE,142,3.0,5.0,67,0.00,,,0.00,336,Wunderground v.1.15,2013-11-11 15:48:00,
2013-11-11 10:52:00,44.0,33.4,30.26,SE,125,5.0,8.0,66,0.00,,,0.00,304,Wunderground v.1.15,2013-11-11 15:52:00,
2013-11-11 10:54:00,44.1,33.1,30.26,SE,142,6.0,9.0,65,0.00,,,0.00,441,Wunderground v.1.15,2013-11-11 15:54:00,
2013-11-11 10:55:00,44.1,33.5,30.26,SE,137,6.0,9.0,66,0.00,,,0.00,438,Wunderground v.1.15,2013-11-11 15:55:00,
2013-11-11 10:56:00,44.3,33.7,30.26,ESE,110,6.0,9.0,66,0.00,,,0.00,508,Wunderground v.1.15,2013-11-11 15:56:00,
2013-11-11 10:57:00,44.3,33.3,30.26,NW,325,6.0,9.0,65,0.00,,,0.00,496,Wunderground v.1.15,2013-11-11 15:57:00,
2013-11-11 10:58:00,44.5,33.5,30.26,ESE,104,6.0,9.0,65,0.00,,,0.00,508,Wunderground v.1.15,2013-11-11 15:58:00,
2013-11-11 11:01:00,44.9,33.8,30.25,SW,232,6.0,6.0,65,0.00,,,0.00,605,Wunderground v.1.15,2013-11-11 16:01:00,
2013-11-11 11:04:00,45.2,33.3,30.25,WSW,257,5.0,5.0,63,0.00,,,0.00,550,Wunderground v.1.15,2013-11-11 16:04:00,
2013-11-11 11:05:00,45.3,33.4,30.25,WNW,285,5.0,5.0,63,0.00,,,0.00,294,Wunderground v.1.15,2013-11-11 16:05:00,
2013-11-11 11:07:00,45.3,33.0,30.25,West,276,5.0,5.0,62,0.00,,,0.00,318,Wunderground v.1.15,2013-11-11 16:07:00,
2013-11-11 11:09:00,45.4,33.1,30.25,West,265,4.0,5.0,62,0.00,,,0.00,429,Wunderground v.1.15,2013-11-11 16:09:00,
2013-11-11 11:11:00,45.5,33.2,30.25,West,280,4.0,6.0,62,0.00,,,0.00,381,Wunderground v.1.15,2013-11-11 16:11:00,
2013-11-11 11:12:00,45.5,33.2,30.25,SSW,211,4.0,6.0,62,0.00,,,0.00,336,Wunderground v.1.15,2013-11-11 16:12:00,
2013-11-11 11:13:00,45.6,33.3,30.25,WSW,257,4.0,8.0,62,0.00,,,0.00,311,Wunderground v.1.15,2013-11-11 16:13:00,
2013-11-11 11:14:00,45.6,32.9,30.25,West,275,4.0,8.0,61,0.00,,,0.00,288,Wunderground v.1.15,2013-11-11 16:14:00,
2013-11-11 11:16:00,45.5,32.8,30.25,WNW,290,5.0,11.0,61,0.00,,,0.00,244,Wunderground v.1.15,2013-11-11 16:16:00,
2013-11-11 11:19:00,45.4,32.7,30.25,SE,132,6.0,11.0,61,0.00,,,0.00,225,Wunderground v.1.15,2013-11-11 16:19:00,
2013-11-11 11:20:00,45.3,32.6,30.25,SW,214,6.0,6.0,61,0.00,,,0.00,223,Wunderground v.1.15,2013-11-11 16:20:00,
2013-11-11 11:21:00,45.4,33.1,30.25,WSW,256,6.0,6.0,62,0.00,,,0.00,223,Wunderground v.1.15,2013-11-11 16:21:00,
2013-11-11 11:25:00,45.4,32.7,30.24,WNW,296,5.0,7.0,61,0.00,,,0.00,207,Wunderground v.1.15,2013-11-11 16:25:00,
2013-11-11 11:28:00,45.6,32.9,30.24,West,275,4.0,8.0,61,0.00,,,0.00,220,Wunderground v.1.15,2013-11-11 16:28:00,
2013-11-11 11:30:00,45.6,32.9,30.24,WSW,246,5.0,7.0,61,0.00,,,0.00,204,Wunderground v.1.15,2013-11-11 16:30:00,
2013-11-11 11:32:00,45.6,32.5,30.24,West,273,5.0,10.0,60,0.00,,,0.00,195,Wunderground v.1.15,2013-11-11 16:32:00,
2013-11-11 11:33:00,45.6,32.5,30.24,West,277,6.0,10.0,60,0.00,,,0.00,220,Wunderground v.1.15,2013-11-11 16:33:00,
2013-11-11 11:34:00,45.6,32.5,30.24,WSW,252,6.0,10.0,60,0.00,,,0.00,199,Wunderground v.1.15,2013-11-11 16:34:00,
2013-11-11 11:36:00,45.7,32.6,30.24,WSW,258,6.0,10.0,60,0.00,,,0.00,236,Wunderground v.1.15,2013-11-11 16:36:00,
2013-11-11 11:37:00,45.8,32.7,30.24,WSW,257,6.0,10.0,60,0.00,,,0.00,243,Wunderground v.1.15,2013-11-11 16:37:00,
2013-11-11 11:40:00,45.8,32.3,30.24,ESE,111,5.0,5.0,59,0.00,,,0.00,218,Wunderground v.1.15,2013-11-11 16:40:00,
2013-11-11 11:42:00,45.9,32.4,30.24,West,276,5.0,5.0,59,0.00,,,0.00,193,Wunderground v.1.15,2013-11-11 16:42:00,
2013-11-11 11:43:00,45.9,32.8,30.24,SE,137,5.0,5.0,60,0.00,,,0.00,176,Wunderground v.1.15,2013-11-11 16:43:00,
2013-11-11 11:47:00,45.9,32.4,30.24,West,279,4.0,7.0,59,0.00,,,0.00,139,Wunderground v.1.15,2013-11-11 16:47:00,
2013-11-11 11:48:00,45.9,32.4,30.23,SSW,194,4.0,7.0,59,0.00,,,0.00,127,Wunderground v.1.15,2013-11-11 16:48:00,
2013-11-11 11:49:00,45.9,32.8,30.23,SE,139,4.0,7.0,60,0.00,,,0.00,120,Wunderground v.1.15,2013-11-11 16:49:00,
2013-11-11 11:51:00,45.8,32.3,30.23,SSE,148,4.0,4.0,59,0.00,,,0.00,111,Wunderground v.1.15,2013-11-11 16:51:00,
2013-11-11 11:52:00,45.8,32.3,30.23,ESE,103,4.0,4.0,59,0.00,,,0.00,107,Wunderground v.1.15,2013-11-11 16:52:00,
2013-11-11 11:53:00,45.7,32.2,30.23,NE,45,4.0,4.0,59,0.00,,,0.00,105,Wunderground v.1.15,2013-11-11 16:53:00,
2013-11-11 11:54:00,45.7,32.2,30.23,ESE,117,5.0,7.0,59,0.00,,,0.00,100,Wunderground v.1.15,2013-11-11 16:54:00,
2013-11-11 11:57:00,45.6,32.1,30.23,ENE,73,5.0,7.0,59,0.00,,,0.00,107,Wunderground v.1.15,2013-11-11 16:57:00,
2013-11-11 11:58:00,45.6,32.1,30.22,WSW,241,4.0,7.0,59,0.00,,,0.00,111,Wunderground v.1.15,2013-11-11 16:58:00,
2013-11-11 11:59:00,45.6,32.1,30.22,ESE,119,4.0,7.0,59,0.00,,,0.00,109,Wunderground v.1.15,2013-11-11 16:59:00,
2013-11-11 12:00:00,45.5,32.4,30.22,WNW,284,4.0,4.0,60,0.00,,,0.00,111,Wunderground v.1.15,2013-11-11 17:00:00,
2013-11-11 12:02:00,45.5,32.4,30.22,SE,129,4.0,5.0,60,0.00,,,0.00,116,Wunderground v.1.15,2013-11-11 17:02:00,
2013-11-11 12:05:00,45.5,32.4,30.22,SE,132,4.0,7.0,60,0.00,,,0.00,128,Wunderground v.1.15,2013-11-11 17:05:00,
2013-11-11 12:06:00,45.5,32.4,30.22,ESE,103,4.0,7.0,60,0.00,,,0.00,132,Wunderground v.1.15,2013-11-11 17:06:00,
2013-11-11 12:07:00,45.6,32.5,30.22,ESE,113,4.0,7.0,60,0.00,,,0.00,137,Wunderground v.1.15,2013-11-11 17:07:00,
2013-11-11 12:10:00,45.6,32.5,30.22,SE,127,4.0,8.0,60,0.00,,,0.00,146,Wunderground v.1.15,2013-11-11 17:10:00,
2013-11-11 12:12:00,45.6,32.5,30.22,North,5,5.0,8.0,60,0.00,,,0.00,148,Wunderground v.1.15,2013-11-11 17:12:00,
2013-11-11 12:15:00,45.6,32.1,30.21,SE,132,5.0,8.0,59,0.00,,,0.00,146,Wunderground v.1.15,2013-11-11 17:15:00,
2013-11-11 12:16:00,45.5,32.0,30.21,SE,129,5.0,8.0,59,0.00,,,0.00,146,Wunderground v.1.15,2013-11-11 17:16:00,
2013-11-11 12:17:00,45.6,32.1,30.21,ESE,120,5.0,8.0,59,0.00,,,0.00,149,Wunderground v.1.15,2013-11-11 17:17:00,
2013-11-11 12:19:00,45.6,32.1,30.21,SE,132,6.0,12.0,59,0.00,,,0.00,153,Wunderground v.1.15,2013-11-11 17:19:00,
2013-11-11 12:21:00,45.5,32.0,30.20,SSE,147,6.0,10.0,59,0.00,,,0.00,155,Wunderground v.1.15,2013-11-11 17:21:00,
2013-11-11 12:23:00,45.6,32.1,30.20,SE,140,7.0,10.0,59,0.00,,,0.00,160,Wunderground v.1.15,2013-11-11 17:23:00,
2013-11-11 12:24:00,45.6,32.1,30.20,ESE,117,7.0,10.0,59,0.00,,,0.00,165,Wunderground v.1.15,2013-11-11 17:24:00,
2013-11-11 12:25:00,45.6,31.7,30.20,ESE,122,7.0,10.0,58,0.00,,,0.00,169,Wunderground v.1.15,2013-11-11 17:25:00,
2013-11-11 12:26:00,45.7,31.8,30.20,SE,133,7.0,10.0,58,0.00,,,0.00,176,Wunderground v.1.15,2013-11-11 17:26:00,
2013-11-11 12:30:00,45.9,31.9,30.19,East,84,7.0,7.0,58,0.00,,,0.00,165,Wunderground v.1.15,2013-11-11 17:30:00,
2013-11-11 12:31:00,45.9,31.5,30.19,WSW,256,6.0,7.0,57,0.00,,,0.00,160,Wunderground v.1.15,2013-11-11 17:31:00,
2013-11-11 12:33:00,46.0,32.0,30.19,WNW,290,6.0,7.0,58,0.00,,,0.00,151,Wunderground v.1.15,2013-11-11 17:33:00,
2013-11-11 12:34:00,46.0,31.6,30.19,WNW,284,6.0,7.0,57,0.00,,,0.00,139,Wunderground v.1.15,2013-11-11 17:34:00,
2013-11-11 12:35:00,46.1,31.7,30.19,WNW,289,5.0,7.0,57,0.00,,,0.00,137,Wunderground v.1.15,2013-11-11 17:35:00,
2013-11-11 12:37:00,46.1,31.7,30.19,WSW,244,6.0,7.0,57,0.00,,,0.00,144,Wunderground v.1.15,2013-11-11 17:37:00,
2013-11-11 12:38:00,46.1,31.7,30.19,WSW,254,6.0,7.0,57,0.00,,,0.00,149,Wunderground v.1.15,2013-11-11 17:38:00,
2013-11-11 12:39:00,46.2,32.2,30.19,SSE,149,6.0,7.0,58,0.00,,,0.00,156,Wunderground v.1.15,2013-11-11 17:39:00,
2013-11-11 12:42:00,46.4,32.0,30.18,SE,143,5.0,5.0,57,0.00,,,0.00,188,Wunderground v.1.15,2013-11-11 17:42:00,
2013-11-11 12:43:00,46.4,32.0,30.18,West,275,5.0,6.0,57,0.00,,,0.00,195,Wunderground v.1.15,2013-11-11 17:43:00,
2013-11-11 12:45:00,46.5,32.5,30.18,East,92,5.0,6.0,58,0.00,,,0.00,216,Wunderground v.1.15,2013-11-11 17:45:00,
2013-11-11 12:49:00,46.8,32.8,30.18,ESE,112,4.0,6.0,58,0.00,,,0.00,244,Wunderground v.1.15,2013-11-11 17:49:00,
2013-11-11 12:51:00,46.9,32.4,30.18,ESE,109,4.0,5.0,57,0.00,,,0.00,248,Wunderground v.1.15,2013-11-11 17:51:00,
2013-11-11 12:52:00,46.9,32.0,30.18,East,89,5.0,5.0,56,0.00,,,0.00,246,Wunderground v.1.15,2013-11-11 17:52:00,
2013-11-11 12:53:00,46.9,32.4,30.18,South,180,4.0,5.0,57,0.00,,,0.00,241,Wunderground v.1.15,2013-11-11 17:53:00,
2013-11-11 12:54:00,47.0,32.5,30.18,SE,133,4.0,5.0,57,0.00,,,0.00,237,Wunderground v.1.15,2013-11-11 17:54:00,
2013-11-11 12:58:00,47.2,32.3,30.17,East,100,4.0,6.0,56,0.00,,,0.00,214,Wunderground v.1.15,2013-11-11 17:58:00,
2013-11-11 12:59:00,47.2,32.3,30.17,SE,130,5.0,7.0,56,0.00,,,0.00,202,Wunderground v.1.15,2013-11-11 17:59:00,
2013-11-11 13:00:00,47.3,32.8,30.17,SSE,161,5.0,8.0,57,0.00,,,0.00,192,Wunderground v.1.15,2013-11-11 18:00:00,
2013-11-11 13:02:00,47.4,32.5,30.17,ESE,123,5.0,8.0,56,0.00,,,0.00,171,Wunderground v.1.15,2013-11-11 18:02:00,
2013-11-11 13:04:00,47.3,31.9,30.17,ESE,121,6.0,10.0,55,0.00,,,0.00,158,Wunderground v.1.15,2013-11-11 18:04:00,
2013-11-11 13:05:00,47.2,31.8,30.17,South,175,7.0,10.0,55,0.00,,,0.00,160,Wunderground v.1.15,2013-11-11 18:05:00,
2013-11-11 13:06:00,47.2,32.3,30.17,SE,144,6.0,10.0,56,0.00,,,0.00,162,Wunderground v.1.15,2013-11-11 18:06:00,
2013-11-11 13:07:00,47.2,32.3,30.17,SSW,194,6.0,10.0,56,0.00,,,0.00,163,Wunderground v.1.15,2013-11-11 18:07:00,
2013-11-11 13:08:00,47.2,32.3,30.17,East,99,6.0,10.0,56,0.00,,,0.00,163,Wunderground v.1.15,2013-11-11 18:08:00,
2013-11-11 13:13:00,47.3,31.5,30.16,SE,131,6.0,8.0,54,0.00,,,0.00,172,Wunderground v.1.15,2013-11-11 18:13:00,
2013-11-11 13:14:00,47.3,31.5,30.16,SE,132,6.0,8.0,54,0.00,,,0.00,171,Wunderground v.1.15,2013-11-11 18:14:00,
2013-11-11 13:15:00,47.3,31.9,30.16,South,169,6.0,8.0,55,0.00,,,0.00,167,Wunderground v.1.15,2013-11-11 18:15:00,
2013-11-11 13:16:00,47.3,31.9,30.16,ESE,113,5.0,9.0,55,0.00,,,0.00,160,Wunderground v.1.15,2013-11-11 18:16:00,
2013-11-11 13:20:00,47.4,32.0,30.16,West,275,5.0,6.0,55,0.00,,,0.00,160,Wunderground v.1.15,2013-11-11 18:20:00,
2013-11-11 13:21:00,47.4,31.6,30.17,WSW,246,5.0,6.0,54,0.00,,,0.00,162,Wunderground v.1.15,2013-11-11 18:21:00,
2013-11-11 13:23:00,47.4,31.6,30.17,SE,125,5.0,6.0,54,0.00,,,0.00,165,Wunderground v.1.15,2013-11-11 18:23:00,
2013-11-11 13:25:00,47.4,32.0,30.17,SE,133,4.0,6.0,55,0.00,,,0.00,167,Wunderground v.1.15,2013-11-11 18:25:00,
2013-11-11 13:26:00,47.4,32.0,30.17,SE,139,5.0,6.0,55,0.00,,,0.00,163,Wunderground v.1.15,2013-11-11 18:26:00,
2013-11-11 13:27:00,47.4,32.0,30.17,ESE,123,5.0,6.0,55,0.00,,,0.00,158,Wunderground v.1.15,2013-11-11 18:27:00,
2013-11-11 13:28:00,47.4,32.0,30.17,SE,129,5.0,6.0,55,0.00,,,0.00,146,Wunderground v.1.15,2013-11-11 18:28:00,
2013-11-11 13:30:00,47.5,32.1,30.17,SE,141,6.0,6.0,55,0.00,,,0.00,137,Wunderground v.1.15,2013-11-11 18:30:00,
2013-11-11 13:31:00,47.4,31.6,30.17,SE,137,6.0,6.0,54,0.00,,,0.00,135,Wunderground v.1.15,2013-11-11 18:31:00,
2013-11-11 13:32:00,47.4,31.6,30.17,SE,126,6.0,7.0,54,0.00,,,0.00,139,Wunderground v.1.15,2013-11-11 18:32:00,
2013-11-11 13:34:00,47.4,32.0,30.17,SE,132,6.0,7.0,55,0.00,,,0.00,144,Wunderground v.1.15,2013-11-11 18:34:00,
2013-11-11 13:38:00,47.4,31.1,30.16,SE,136,6.0,7.0,53,0.00,,,0.00,127,Wunderground v.1.15,2013-11-11 18:38:00,
2013-11-11 13:39:00,47.4,31.1,30.16,SE,146,6.0,7.0,53,0.00,,,0.00,128,Wunderground v.1.15,2013-11-11 18:39:00,
2013-11-11 13:41:00,47.4,31.1,30.16,ESE,119,5.0,7.0,53,0.00,,,0.00,127,Wunderground v.1.15,2013-11-11 18:41:00,
2013-11-11 13:45:00,47.3,30.5,30.15,ESE,103,6.0,12.0,52,0.00,,,0.00,121,Wunderground v.1.15,2013-11-11 18:45:00,
2013-11-11 13:46:00,47.2,30.5,30.15,SSE,153,6.0,12.0,52,0.00,,,0.00,118,Wunderground v.1.15,2013-11-11 18:46:00,
2013-11-11 13:48:00,47.2,30.9,30.15,ESE,121,6.0,12.0,53,0.00,,,0.00,114,Wunderground v.1.15,2013-11-11 18:48:00,
2013-11-11 13:49:00,47.2,30.9,30.15,South,177,6.0,12.0,53,0.00,,,0.00,114,Wunderground v.1.15,2013-11-11 18:49:00,
2013-11-11 13:52:00,47.3,31.0,30.15,East,95,6.0,8.0,53,0.00,,,0.00,105,Wunderground v.1.15,2013-11-11 18:52:00,
2013-11-11 13:53:00,47.3,31.0,30.15,NNE,26,6.0,8.0,53,0.00,,,0.00,105,Wunderground v.1.15,2013-11-11 18:53:00,
2013-11-11 13:55:00,47.3,31.0,30.15,NW,322,5.0,8.0,53,0.00,,,0.00,109,Wunderground v.1.15,2013-11-11 18:55:00,
2013-11-11 13:56:00,47.4,31.1,30.15,ESE,112,5.0,8.0,53,0.00,,,0.00,107,Wunderground v.1.15,2013-11-11 18:56:00,
2013-11-11 13:57:00,47.4,30.6,30.15,SSE,163,5.0,8.0,52,0.00,,,0.00,98,Wunderground v.1.15,2013-11-11 18:57:00,
2013-11-11 13:59:00,47.4,31.1,30.15,South,175,4.0,8.0,53,0.00,,,0.00,91,Wunderground v.1.15,2013-11-11 18:59:00,
2013-11-11 14:01:00,47.4,30.6,30.15,SE,143,4.0,8.0,52,0.00,,,0.00,88,Wunderground v.1.15,2013-11-11 19:01:00,
2013-11-11 14:03:00,47.4,30.6,30.15,SE,135,5.0,8.0,52,0.00,,,0.00,88,Wunderground v.1.15,2013-11-11 19:03:00,
2013-11-11 14:06:00,47.4,30.6,30.15,ESE,112,5.0,8.0,52,0.00,,,0.00,84,Wunderground v.1.15,2013-11-11 19:06:00,
2013-11-11 14:10:00,47.5,30.7,30.15,SSE,159,5.0,5.0,52,0.00,,,0.00,83,Wunderground v.1.15,2013-11-11 19:10:00,
2013-11-11 14:11:00,47.5,30.7,30.15,SE,128,5.0,5.0,52,0.00,,,0.00,83,Wunderground v.1.15,2013-11-11 19:11:00,
2013-11-11 14:15:00,47.5,30.7,30.15,ENE,72,6.0,8.0,52,0.00,,,0.00,77,Wunderground v.1.15,2013-11-11 19:15:00,
2013-11-11 14:17:00,47.5,30.7,30.15,SE,137,6.0,8.0,52,0.00,,,0.00,81,Wunderground v.1.15,2013-11-11 19:17:00,
2013-11-11 14:18:00,47.5,30.7,30.15,SE,136,6.0,8.0,52,0.00,,,0.00,81,Wunderground v.1.15,2013-11-11 19:18:00,
2013-11-11 14:20:00,47.5,30.7,30.15,SE,135,6.0,6.0,52,0.00,,,0.00,81,Wunderground v.1.15,2013-11-11 19:20:00,
2013-11-11 14:23:00,47.5,30.7,30.15,SE,125,6.0,6.0,52,0.00,,,0.00,84,Wunderground v.1.15,2013-11-11 19:23:00,
2013-11-11 14:24:00,47.5,30.7,30.15,SE,128,6.0,6.0,52,0.00,,,0.00,84,Wunderground v.1.15,2013-11-11 19:24:00,
2013-11-11 14:29:00,47.6,30.8,30.15,SSE,147,4.0,6.0,52,0.00,,,0.00,77,Wunderground v.1.15,2013-11-11 19:29:00,
2013-11-11 14:30:00,47.7,30.9,30.15,East,98,4.0,6.0,52,0.00,,,0.00,72,Wunderground v.1.15,2013-11-11 19:30:00,
2013-11-11 14:33:00,47.7,30.9,30.15,SE,142,4.0,6.0,52,0.00,,,0.00,72,Wunderground v.1.15,2013-11-11 19:33:00,
2013-11-11 14:34:00,47.7,30.9,30.15,ESE,111,4.0,8.0,52,0.00,,,0.00,76,Wunderground v.1.15,2013-11-11 19:34:00,
2013-11-11 14:35:00,47.7,30.4,30.15,ESE,123,4.0,8.0,51,0.00,,,0.00,79,Wunderground v.1.15,2013-11-11 19:35:00,
2013-11-11 14:37:00,47.8,30.5,30.14,SE,129,4.0,8.0,51,0.00,,,0.00,83,Wunderground v.1.15,2013-11-11 19:37:00,
2013-11-11 14:38:00,47.8,30.5,30.15,SE,126,5.0,8.0,51,0.00,,,0.00,81,Wunderground v.1.15,2013-11-11 19:38:00,
2013-11-11 14:39:00,47.8,30.0,30.14,ESE,118,5.0,8.0,50,0.00,,,0.00,81,Wunderground v.1.15,2013-11-11 19:39:00,
2013-11-11 14:43:00,47.8,30.5,30.14,SE,141,6.0,8.0,51,0.00,,,0.00,70,Wunderground v.1.15,2013-11-11 19:43:00,
2013-11-11 14:45:00,47.8,30.5,30.14,SSE,167,7.0,8.0,51,0.00,,,0.00,69,Wunderground v.1.15,2013-11-11 19:45:00,
2013-11-11 14:48:00,47.8,30.5,30.13,ESE,105,7.0,8.0,51,0.00,,,0.00,65,Wunderground v.1.15,2013-11-11 19:48:00,
2013-11-11 14:49:00,47.8,30.5,30.13,ESE,123,7.0,8.0,51,0.00,,,0.00,65,Wunderground v.1.15,2013-11-11 19:49:00,
2013-11-11 14:51:00,47.8,30.5,30.13,ESE,109,7.0,9.0,51,0.00,,,0.00,74,Wunderground v.1.15,2013-11-11 19:51:00,
2013-11-11 14:56:00,47.9,30.6,30.13,SSE,163,6.0,10.0,51,0.00,,,0.00,67,Wunderground v.1.15,2013-11-11 19:56:00,
2013-11-11 14:57:00,47.9,31.1,30.12,SE,129,7.0,10.0,52,0.00,,,0.00,67,Wunderground v.1.15,2013-11-11 19:57:00,
2013-11-11 14:58:00,47.8,30.5,30.12,ESE,118,7.0,10.0,51,0.00,,,0.00,67,Wunderground v.1.15,2013-11-11 19:58:00,
2013-11-11 15:02:00,47.9,31.1,30.12,SE,126,6.0,7.0,52,0.00,,,0.00,69,Wunderground v.1.15,2013-11-11 20:02:00,
2013-11-11 15:04:00,47.9,31.1,30.12,SSE,166,6.0,7.0,52,0.00,,,0.00,69,Wunderground v.1.15,2013-11-11 20:04:00,
2013-11-11 15:05:00,47.9,31.1,30.11,East,92,6.0,7.0,52,0.00,,,0.00,67,Wunderground v.1.15,2013-11-11 20:05:00,
2013-11-11 15:07:00,47.9,31.1,30.11,SE,139,5.0,7.0,52,0.00,,,0.00,63,Wunderground v.1.15,2013-11-11 20:07:00,
2013-11-11 15:10:00,47.8,30.5,30.11,SE,125,5.0,7.0,51,0.00,,,0.00,58,Wunderground v.1.15,2013-11-11 20:10:00,
2013-11-11 15:11:00,47.9,30.6,30.11,SE,134,5.0,7.0,51,0.00,,,0.00,58,Wunderground v.1.15,2013-11-11 20:11:00,
2013-11-11 15:13:00,47.8,30.5,30.11,ESE,122,6.0,10.0,51,0.00,,,0.00,53,Wunderground v.1.15,2013-11-11 20:13:00,
2013-11-11 15:15:00,47.8,30.5,30.11,SSE,151,7.0,11.0,51,0.00,,,0.00,51,Wunderground v.1.15,2013-11-11 20:15:00,
2013-11-11 15:17:00,47.8,30.5,30.11,ESE,122,7.0,11.0,51,0.00,,,0.00,54,Wunderground v.1.15,2013-11-11 20:17:00,
2013-11-11 15:18:00,47.7,30.9,30.11,SE,126,7.0,11.0,52,0.00,,,0.00,54,Wunderground v.1.15,2013-11-11 20:18:00,
2013-11-11 15:19:00,47.8,31.0,30.12,SE,126,7.0,11.0,52,0.00,,,0.00,54,Wunderground v.1.15,2013-11-11 20:19:00,
2013-11-11 15:22:00,47.8,31.0,30.12,SE,140,7.0,7.0,52,0.00,,,0.00,49,Wunderground v.1.15,2013-11-11 20:22:00,
2013-11-11 15:23:00,47.7,30.4,30.12,SE,140,6.0,7.0,51,0.00,,,0.00,49,Wunderground v.1.15,2013-11-11 20:23:00,
2013-11-11 15:25:00,47.7,30.4,30.12,ESE,113,6.0,10.0,51,0.00,,,0.00,49,Wunderground v.1.15,2013-11-11 20:25:00,
2013-11-11 15:26:00,47.7,30.4,30.11,SSE,148,6.0,10.0,51,0.00,,,0.00,49,Wunderground v.1.15,2013-11-11 20:26:00,
2013-11-11 15:29:00,47.7,30.4,30.11,ESE,119,7.0,14.0,51,0.00,,,0.00,47,Wunderground v.1.15,2013-11-11 20:29:00,
2013-11-11 15:31:00,47.7,30.0,30.11,ESE,111,8.0,10.0,50,0.00,,,0.00,46,Wunderground v.1.15,2013-11-11 20:31:00,
2013-11-11 15:32:00,47.7,30.4,30.11,SE,134,8.0,10.0,51,0.00,,,0.00,44,Wunderground v.1.15,2013-11-11 20:32:00,
2013-11-11 15:33:00,47.7,30.4,30.11,ESE,115,8.0,10.0,51,0.00,,,0.00,44,Wunderground v.1.15,2013-11-11 20:33:00,
2013-11-11 15:34:00,47.7,30.4,30.11,SE,125,8.0,10.0,51,0.00,,,0.00,44,Wunderground v.1.15,2013-11-11 20:34:00,
2013-11-11 15:37:00,47.7,30.4,30.11,SE,124,8.0,11.0,51,0.00,,,0.00,40,Wunderground v.1.15,2013-11-11 20:37:00,
2013-11-11 15:38:00,47.7,30.4,30.11,SE,132,8.0,11.0,51,0.00,,,0.00,40,Wunderground v.1.15,2013-11-11 20:38:00,
2013-11-11 15:40:00,47.7,30.4,30.11,SE,145,7.0,7.0,51,0.00,,,0.00,37,Wunderground v.1.15,2013-11-11 20:40:00,
2013-11-11 15:41:00,47.7,30.9,30.11,ESE,115,7.0,7.0,52,0.00,,,0.00,37,Wunderground v.1.15,2013-11-11 20:41:00,
2013-11-11 15:45:00,47.7,30.9,30.11,SE,144,6.0,7.0,52,0.00,,,0.00,40,Wunderground v.1.15,2013-11-11 20:45:00,
2013-11-11 15:47:00,47.7,30.4,30.11,ESE,116,6.0,8.0,51,0.00,,,0.00,42,Wunderground v.1.15,2013-11-11 20:47:00,
2013-11-11 15:48:00,47.7,30.4,30.11,SE,127,6.0,8.0,51,0.00,,,0.00,42,Wunderground v.1.15,2013-11-11 20:48:00,
2013-11-11 15:51:00,47.7,30.4,30.11,ESE,121,6.0,11.0,51,0.00,,,0.00,42,Wunderground v.1.15,2013-11-11 20:51:00,
2013-11-11 15:52:00,47.6,30.3,30.11,ESE,116,6.0,11.0,51,0.00,,,0.00,42,Wunderground v.1.15,2013-11-11 20:52:00,
2013-11-11 15:54:00,47.7,30.4,30.11,ESE,112,6.0,11.0,51,0.00,,,0.00,40,Wunderground v.1.15,2013-11-11 20:54:00,
2013-11-11 15:56:00,47.7,30.9,30.11,ESE,113,6.0,11.0,52,0.00,,,0.00,42,Wunderground v.1.15,2013-11-11 20:56:00,
2013-11-11 15:58:00,47.6,30.3,30.10,SE,136,6.0,11.0,51,0.00,,,0.00,44,Wunderground v.1.15,2013-11-11 20:58:00,
2013-11-11 15:59:00,47.6,30.3,30.10,ESE,120,6.0,6.0,51,0.00,,,0.00,44,Wunderground v.1.15,2013-11-11 20:59:00,
2013-11-11 16:01:00,47.6,30.8,30.11,SE,134,6.0,6.0,52,0.00,,,0.00,42,Wunderground v.1.15,2013-11-11 21:01:00,
2013-11-11 16:03:00,47.6,30.3,30.11,SE,128,6.0,8.0,51,0.00,,,0.00,39,Wunderground v.1.15,2013-11-11 21:03:00,
2013-11-11 16:07:00,47.6,30.8,30.11,ESE,112,7.0,8.0,52,0.00,,,0.00,32,Wunderground v.1.15,2013-11-11 21:07:00,
2013-11-11 16:09:00,47.6,30.8,30.11,SE,136,7.0,8.0,52,0.00,,,0.00,30,Wunderground v.1.15,2013-11-11 21:09:00,
2013-11-11 16:10:00,47.6,30.8,30.11,ESE,123,7.0,7.0,52,0.00,,,0.00,28,Wunderground v.1.15,2013-11-11 21:10:00,
2013-11-11 16:12:00,47.6,30.8,30.11,ESE,103,6.0,7.0,52,0.00,,,0.00,26,Wunderground v.1.15,2013-11-11 21:12:00,
2013-11-11 16:13:00,47.7,30.9,30.11,SE,132,6.0,7.0,52,0.00,,,0.00,25,Wunderground v.1.15,2013-11-11 21:13:00,
2013-11-11 16:17:00,47.6,30.8,30.11,ESE,123,6.0,7.0,52,0.00,,,0.00,25,Wunderground v.1.15,2013-11-11 21:17:00,
2013-11-11 16:18:00,47.7,30.9,30.11,SE,130,6.0,7.0,52,0.00,,,0.00,23,Wunderground v.1.15,2013-11-11 21:18:00,
2013-11-11 16:19:00,47.7,30.9,30.10,SE,128,5.0,7.0,52,0.00,,,0.00,23,Wunderground v.1.15,2013-11-11 21:19:00,
2013-11-11 16:20:00,47.7,30.9,30.10,SE,130,5.0,6.0,52,0.00,,,0.00,23,Wunderground v.1.15,2013-11-11 21:20:00,
2013-11-11 16:22:00,47.7,30.9,30.10,SE,146,5.0,6.0,52,0.00,,,0.00,19,Wunderground v.1.15,2013-11-11 21:22:00,
2013-11-11 16:24:00,47.7,30.9,30.10,ESE,108,5.0,6.0,52,0.00,,,0.00,16,Wunderground v.1.15,2013-11-11 21:24:00,
2013-11-11 16:25:00,47.7,30.9,30.11,SE,129,5.0,6.0,52,0.00,,,0.00,16,Wunderground v.1.15,2013-11-11 21:25:00,
2013-11-11 16:28:00,47.7,30.9,30.11,SE,137,5.0,6.0,52,0.00,,,0.00,14,Wunderground v.1.15,2013-11-11 21:28:00,
2013-11-11 16:31:00,47.7,30.9,30.10,SE,144,4.0,8.0,52,0.00,,,0.00,12,Wunderground v.1.15,2013-11-11 21:31:00,
2013-11-11 16:32:00,47.7,30.4,30.10,SE,126,5.0,8.0,51,0.00,,,0.00,12,Wunderground v.1.15,2013-11-11 21:32:00,
2013-11-11 16:34:00,47.7,30.9,30.10,ESE,115,5.0,8.0,52,0.00,,,0.00,11,Wunderground v.1.15,2013-11-11 21:34:00,
2013-11-11 16:37:00,47.8,31.0,30.09,ESE,115,5.0,8.0,52,0.00,,,0.00,11,Wunderground v.1.15,2013-11-11 21:37:00,
2013-11-11 16:38:00,47.8,31.0,30.09,SE,125,5.0,8.0,52,0.00,,,0.00,9,Wunderground v.1.15,2013-11-11 21:38:00,
2013-11-11 16:40:00,47.7,30.9,30.09,SSE,149,5.0,6.0,52,0.00,,,0.00,7,Wunderground v.1.15,2013-11-11 21:40:00,
2013-11-11 16:41:00,47.7,30.9,30.09,SE,134,5.0,6.0,52,0.00,,,0.00,7,Wunderground v.1.15,2013-11-11 21:41:00,
2013-11-11 16:45:00,47.7,30.4,30.09,ESE,123,6.0,9.0,51,0.00,,,0.00,0,Wunderground v.1.15,2013-11-11 21:45:00,
2013-11-11 16:46:00,47.7,30.4,30.09,ESE,109,6.0,9.0,51,0.00,,,0.00,0,Wunderground v.1.15,2013-11-11 21:46:00,
2013-11-11 16:48:00,47.7,30.4,30.09,SE,126,7.0,9.0,51,0.00,,,0.00,0,Wunderground v.1.15,2013-11-11 21:48:00,
2013-11-11 16:49:00,47.8,30.5,30.09,ESE,109,7.0,9.0,51,0.00,,,0.00,0,Wunderground v.1.15,2013-11-11 21:49:00,
2013-11-11 16:52:00,47.8,30.5,30.09,SE,134,7.0,8.0,51,0.00,,,0.00,0,Wunderground v.1.15,2013-11-11 21:52:00,
2013-11-11 16:53:00,47.8,30.5,30.09,ESE,121,7.0,8.0,51,0.00,,,0.00,0,Wunderground v.1.15,2013-11-11 21:53:00,
2013-11-11 16:55:00,47.8,30.5,30.09,SE,124,7.0,8.0,51,0.00,,,0.00,0,Wunderground v.1.15,2013-11-11 21:55:00,
2013-11-11 16:57:00,47.8,30.5,30.09,SE,130,7.0,8.0,51,0.00,,,0.00,0,Wunderground v.1.15,2013-11-11 21:57:00,
2013-11-11 16:59:00,47.9,30.6,30.09,SE,133,7.0,10.0,51,0.00,,,0.00,0,Wunderground v.1.15,2013-11-11 21:59:00,
2013-11-11 17:00:00,47.9,30.6,30.09,ESE,120,7.0,7.0,51,0.00,,,0.00,0,Wunderground v.1.15,2013-11-11 22:00:00,
2013-11-11 17:01:00,47.9,30.6,30.09,SE,143,7.0,7.0,51,0.00,,,0.00,0,Wunderground v.1.15,2013-11-11 22:01:00,
2013-11-11 17:02:00,47.9,30.6,30.09,SE,139,7.0,7.0,51,0.00,,,0.00,0,Wunderground v.1.15,2013-11-11 22:02:00,
2013-11-11 17:03:00,47.9,30.6,30.09,ESE,115,7.0,7.0,51,0.00,,,0.00,0,Wunderground v.1.15,2013-11-11 22:03:00,
2013-11-11 17:04:00,47.9,30.6,30.09,SE,139,7.0,7.0,51,0.00,,,0.00,0,Wunderground v.1.15,2013-11-11 22:04:00,
2013-11-11 17:06:00,47.9,30.6,30.09,SE,134,7.0,7.0,51,0.00,,,0.00,0,Wunderground v.1.15,2013-11-11 22:06:00,
2013-11-11 17:07:00,48.0,30.7,30.09,ESE,104,7.0,9.0,51,0.00,,,0.00,0,Wunderground v.1.15,2013-11-11 22:07:00,
2013-11-11 17:08:00,48.0,30.7,30.09,ESE,122,7.0,9.0,51,0.00,,,0.00,0,Wunderground v.1.15,2013-11-11 22:08:00,
2013-11-11 17:12:00,48.1,30.8,30.09,SE,140,7.0,11.0,51,0.00,,,0.00,0,Wunderground v.1.15,2013-11-11 22:12:00,
2013-11-11 17:13:00,48.1,30.8,30.09,SSE,155,7.0,11.0,51,0.00,,,0.00,0,Wunderground v.1.15,2013-11-11 22:13:00,
2013-11-11 17:14:00,48.1,30.8,30.08,SSE,148,7.0,11.0,51,0.00,,,0.00,0,Wunderground v.1.15,2013-11-11 22:14:00,
2013-11-11 17:15:00,48.1,30.8,30.08,ESE,117,7.0,11.0,51,0.00,,,0.00,0,Wunderground v.1.15,2013-11-11 22:15:00,
2013-11-11 17:16:00,48.1,30.8,30.08,SE,132,7.0,12.0,51,0.00,,,0.00,0,Wunderground v.1.15,2013-11-11 22:16:00,
2013-11-11 17:19:00,48.2,30.4,30.09,SE,138,7.0,12.0,50,0.00,,,0.00,0,Wunderground v.1.15,2013-11-11 22:19:00,
2013-11-11 17:22:00,48.2,30.9,30.09,SE,126,8.0,8.0,51,0.00,,,0.00,0,Wunderground v.1.15,2013-11-11 22:22:00,
2013-11-11 17:27:00,48.2,30.4,30.09,ESE,119,8.0,8.0,50,0.00,,,0.00,0,Wunderground v.1.15,2013-11-11 22:27:00,
2013-11-11 17:28:00,48.3,30.5,30.08,SE,126,8.0,8.0,50,0.00,,,0.00,0,Wunderground v.1.15,2013-11-11 22:28:00,
2013-11-11 17:31:00,48.3,30.5,30.08,SE,126,8.0,10.0,50,0.00,,,0.00,0,Wunderground v.1.15,2013-11-11 22:31:00,
2013-11-11 17:33:00,48.4,30.6,30.08,SE,138,8.0,11.0,50,0.00,,,0.00,0,Wunderground v.1.15,2013-11-11 22:33:00,
2013-11-11 17:34:00,48.4,30.6,30.08,SE,138,8.0,11.0,50,0.00,,,0.00,0,Wunderground v.1.15,2013-11-11 22:34:00,
2013-11-11 17:36:00,48.4,30.6,30.08,ESE,112,8.0,11.0,50,0.00,,,0.00,0,Wunderground v.1.15,2013-11-11 22:36:00,
2013-11-11 17:37:00,48.4,30.6,30.08,East,99,8.0,11.0,50,0.00,,,0.00,0,Wunderground v.1.15,2013-11-11 22:37:00,
2013-11-11 17:40:00,48.4,30.6,30.08,ESE,121,8.0,9.0,50,0.00,,,0.00,0,Wunderground v.1.15,2013-11-11 22:40:00,
2013-11-11 17:43:00,48.4,30.6,30.08,ESE,112,7.0,11.0,50,0.00,,,0.00,0,Wunderground v.1.15,2013-11-11 22:43:00,
2013-11-11 17:44:00,48.4,30.6,30.08,SE,130,8.0,11.0,50,0.00,,,0.00,0,Wunderground v.1.15,2013-11-11 22:44:00,
2013-11-11 17:45:00,48.4,30.6,30.08,ESE,121,8.0,11.0,50,0.00,,,0.00,0,Wunderground v.1.15,2013-11-11 22:45:00,
2013-11-11 17:47:00,48.4,30.6,30.08,ESE,111,8.0,13.0,50,0.00,,,0.00,0,Wunderground v.1.15,2013-11-11 22:47:00,
2013-11-11 17:49:00,48.4,30.6,30.08,SE,140,9.0,13.0,50,0.00,,,0.00,0,Wunderground v.1.15,2013-11-11 22:49:00,
2013-11-11 17:51:00,48.5,30.7,30.08,ESE,123,9.0,11.0,50,0.00,,,0.00,0,Wunderground v.1.15,2013-11-11 22:51:00,
2013-11-11 17:52:00,48.5,30.7,30.08,ESE,115,9.0,11.0,50,0.00,,,0.00,0,Wunderground v.1.15,2013-11-11 22:52:00,
2013-11-11 17:53:00,48.5,30.7,30.08,SSE,147,9.0,11.0,50,0.00,,,0.00,0,Wunderground v.1.15,2013-11-11 22:53:00,
2013-11-11 17:54:00,48.4,31.1,30.08,ESE,105,9.0,11.0,51,0.00,,,0.00,0,Wunderground v.1.15,2013-11-11 22:54:00,
2013-11-11 17:58:00,48.5,30.7,30.08,SE,134,9.0,11.0,50,0.00,,,0.00,0,Wunderground v.1.15,2013-11-11 22:58:00,
2013-11-11 17:59:00,48.5,30.7,30.08,SE,128,9.0,11.0,50,0.00,,,0.00,0,Wunderground v.1.15,2013-11-11 22:59:00,
2013-11-11 18:00:00,48.5,30.7,30.08,ESE,118,9.0,9.0,50,0.00,,,0.00,0,Wunderground v.1.15,2013-11-11 23:00:00,
2013-11-11 18:01:00,48.6,30.8,30.08,ESE,119,9.0,13.0,50,0.00,,,0.00,0,Wunderground v.1.15,2013-11-11 23:01:00,
2013-11-11 18:05:00,48.7,30.9,30.08,East,100,9.0,13.0,50,0.00,,,0.00,0,Wunderground v.1.15,2013-11-11 23:05:00,
2013-11-11 18:06:00,48.7,30.9,30.08,SE,129,9.0,13.0,50,0.00,,,0.00,0,Wunderground v.1.15,2013-11-11 23:06:00,
2013-11-11 18:07:00,48.7,30.9,30.07,SE,134,9.0,13.0,50,0.00,,,0.00,0,Wunderground v.1.15,2013-11-11 23:07:00,
2013-11-11 18:08:00,48.7,30.9,30.07,SE,132,9.0,13.0,50,0.00,,,0.00,0,Wunderground v.1.15,2013-11-11 23:08:00,
2013-11-11 18:09:00,48.7,30.9,30.07,ESE,119,9.0,13.0,50,0.00,,,0.00,0,Wunderground v.1.15,2013-11-11 23:09:00,
2013-11-11 18:12:00,48.7,30.4,30.08,SE,133,9.0,14.0,49,0.00,,,0.00,0,Wunderground v.1.15,2013-11-11 23:12:00,
2013-11-11 18:13:00,48.7,30.4,30.08,SE,145,9.0,14.0,49,0.00,,,0.00,0,Wunderground v.1.15,2013-11-11 23:13:00,
2013-11-11 18:15:00,48.8,30.5,30.07,SE,132,9.0,14.0,49,0.00,,,0.00,0,Wunderground v.1.15,2013-11-11 23:15:00,
2013-11-11 18:16:00,48.8,30.5,30.07,SSE,168,9.0,14.0,49,0.00,,,0.00,0,Wunderground v.1.15,2013-11-11 23:16:00,
2013-11-11 18:18:00,48.8,30.5,30.07,SE,132,8.0,14.0,49,0.00,,,0.00,0,Wunderground v.1.15,2013-11-11 23:18:00,
2013-11-11 18:19:00,48.8,30.5,30.07,SE,129,8.0,14.0,49,0.00,,,0.00,0,Wunderground v.1.15,2013-11-11 23:19:00,
2013-11-11 18:21:00,48.8,30.5,30.08,ESE,108,9.0,12.0,49,0.00,,,0.00,0,Wunderground v.1.15,2013-11-11 23:21:00,
2013-11-11 18:22:00,48.9,30.6,30.07,SE,126,9.0,12.0,49,0.00,,,0.00,0,Wunderground v.1.15,2013-11-11 23:22:00,
2013-11-11 18:23:00,48.9,30.6,30.07,SE,132,9.0,12.0,49,0.00,,,0.00,0,Wunderground v.1.15,2013-11-11 23:23:00,
2013-11-11 18:24:00,48.9,30.6,30.07,SE,132,9.0,12.0,49,0.00,,,0.00,0,Wunderground v.1.15,2013-11-11 23:24:00,
2013-11-11 18:27:00,48.9,30.6,30.07,SE,133,9.0,13.0,49,0.00,,,0.00,0,Wunderground v.1.15,2013-11-11 23:27:00,
2013-11-11 18:28:00,49.0,30.1,30.07,SE,136,10.0,13.0,48,0.00,,,0.00,0,Wunderground v.1.15,2013-11-11 23:28:00,
2013-11-11 18:29:00,49.0,30.1,30.07,SE,136,10.0,13.0,48,0.00,,,0.00,0,Wunderground v.1.15,2013-11-11 23:29:00,
2013-11-11 18:30:00,49.0,30.7,30.07,SE,134,10.0,10.0,49,0.00,,,0.00,0,Wunderground v.1.15,2013-11-11 23:30:00,
2013-11-11 18:35:00,49.1,30.2,30.08,SE,141,9.0,12.0,48,0.00,,,0.00,0,Wunderground v.1.15,2013-11-11 23:35:00,
2013-11-11 18:37:00,49.1,30.2,30.07,SE,132,9.0,12.0,48,0.00,,,0.00,0,Wunderground v.1.15,2013-11-11 23:37:00,
2013-11-11 18:39:00,49.1,30.2,30.07,ESE,111,9.0,12.0,48,0.00,,,0.00,0,Wunderground v.1.15,2013-11-11 23:39:00,
2013-11-11 18:40:00,49.1,30.2,30.07,ESE,117,9.0,9.0,48,0.00,,,0.00,0,Wunderground v.1.15,2013-11-11 23:40:00,
2013-11-11 18:41:00,49.1,30.2,30.07,SE,132,9.0,9.0,48,0.00,,,0.00,0,Wunderground v.1.15,2013-11-11 23:41:00,
2013-11-11 18:43:00,49.1,30.2,30.07,SSE,150,9.0,9.0,48,0.00,,,0.00,0,Wunderground v.1.15,2013-11-11 23:43:00,
2013-11-11 18:45:00,49.1,30.2,30.07,ESE,113,9.0,9.0,48,0.00,,,0.00,0,Wunderground v.1.15,2013-11-11 23:45:00,
2013-11-11 18:48:00,49.1,30.2,30.07,SE,140,8.0,9.0,48,0.00,,,0.00,0,Wunderground v.1.15,2013-11-11 23:48:00,
2013-11-11 18:49:00,49.2,30.3,30.07,ESE,106,8.0,9.0,48,0.00,,,0.00,0,Wunderground v.1.15,2013-11-11 23:49:00,
2013-11-11 18:50:00,49.2,30.3,30.07,SE,124,8.0,11.0,48,0.00,,,0.00,0,Wunderground v.1.15,2013-11-11 23:50:00,
2013-11-11 18:51:00,49.1,30.2,30.07,SE,126,8.0,11.0,48,0.00,,,0.00,0,Wunderground v.1.15,2013-11-11 23:51:00,
2013-11-11 18:55:00,49.2,30.3,30.07,SE,130,8.0,11.0,48,0.00,,,0.00,0,Wunderground v.1.15,2013-11-11 23:55:00,
2013-11-11 18:57:00,49.2,30.3,30.07,ESE,121,8.0,11.0,48,0.00,,,0.00,0,Wunderground v.1.15,2013-11-11 23:57:00,
2013-11-11 18:58:00,49.2,30.3,30.06,ESE,113,8.0,11.0,48,0.00,,,0.00,0,Wunderground v.1.15,2013-11-11 23:58:00,
2013-11-11 18:59:00,49.2,30.3,30.06,SE,145,8.0,11.0,48,0.00,,,0.00,0,Wunderground v.1.15,2013-11-11 23:59:00,
2013-11-11 19:02:00,49.2,30.3,30.07,ESE,103,7.0,7.0,48,0.00,,,0.00,0,Wunderground v.1.15,2013-11-12 00:02:00,
2013-11-11 19:03:00,49.2,30.3,30.06,SE,130,7.0,10.0,48,0.00,,,0.00,0,Wunderground v.1.15,2013-11-12 00:03:00,
2013-11-11 19:04:00,49.2,30.3,30.06,SE,139,7.0,10.0,48,0.00,,,0.00,0,Wunderground v.1.15,2013-11-12 00:04:00,
2013-11-11 19:05:00,49.2,30.3,30.06,SE,137,7.0,10.0,48,0.00,,,0.00,0,Wunderground v.1.15,2013-11-12 00:05:00,
2013-11-11 19:06:00,49.2,30.3,30.06,ESE,107,7.0,10.0,48,0.00,,,0.00,0,Wunderground v.1.15,2013-11-12 00:06:00,
2013-11-11 19:09:00,49.2,30.3,30.06,West,267,6.0,10.0,48,0.00,,,0.00,0,Wunderground v.1.15,2013-11-12 00:09:00,
2013-11-11 19:10:00,49.2,30.3,30.06,ESE,121,6.0,6.0,48,0.00,,,0.00,0,Wunderground v.1.15,2013-11-12 00:10:00,
2013-11-11 19:11:00,49.2,30.3,30.06,SSE,167,6.0,6.0,48,0.00,,,0.00,0,Wunderground v.1.15,2013-11-12 00:11:00,
2013-11-11 19:12:00,49.2,30.3,30.06,ESE,113,6.0,8.0,48,0.00,,,0.00,0,Wunderground v.1.15,2013-11-12 00:12:00,
2013-11-11 19:13:00,49.2,30.3,30.06,ESE,120,6.0,8.0,48,0.00,,,0.00,0,Wunderground v.1.15,2013-11-12 00:13:00,
2013-11-11 19:17:00,49.1,30.2,30.06,SE,134,6.0,8.0,48,0.00,,,0.00,0,Wunderground v.1.15,2013-11-12 00:17:00,
2013-11-11 19:18:00,49.2,30.3,30.06,ESE,117,6.0,8.0,48,0.00,,,0.00,0,Wunderground v.1.15,2013-11-12 00:18:00,
2013-11-11 19:19:00,49.1,30.2,30.06,SE,128,6.0,8.0,48,0.00,,,0.00,0,Wunderground v.1.15,2013-11-12 00:19:00,
2013-11-11 19:22:00,49.2,30.3,30.06,SW,216,6.0,6.0,48,0.00,,,0.00,0,Wunderground v.1.15,2013-11-12 00:22:00,
2013-11-11 19:23:00,49.2,30.3,30.06,SE,129,5.0,6.0,48,0.00,,,0.00,0,Wunderground v.1.15,2013-11-12 00:23:00,
2013-11-11 19:24:00,49.2,30.3,30.06,SE,128,5.0,6.0,48,0.00,,,0.00,0,Wunderground v.1.15,2013-11-12 00:24:00,
2013-11-11 19:27:00,49.1,30.2,30.06,SE,135,4.0,6.0,48,0.00,,,0.00,0,Wunderground v.1.15,2013-11-12 00:27:00,
2013-11-11 19:28:00,49.1,30.2,30.06,ESE,121,3.0,6.0,48,0.00,,,0.00,0,Wunderground v.1.15,2013-11-12 00:28:00,
2013-11-11 19:29:00,49.1,30.2,30.06,SE,143,3.0,6.0,48,0.00,,,0.00,0,Wunderground v.1.15,2013-11-12 00:29:00,
2013-11-11 19:34:00,49.1,30.7,30.06,West,272,2.0,4.0,49,0.00,,,0.00,0,Wunderground v.1.15,2013-11-12 00:34:00,
2013-11-11 19:35:00,49.1,30.7,30.06,SSE,158,2.0,4.0,49,0.00,,,0.00,0,Wunderground v.1.15,2013-11-12 00:35:00,
2013-11-11 19:36:00,49.1,30.7,30.06,WSW,254,2.0,4.0,49,0.00,,,0.00,0,Wunderground v.1.15,2013-11-12 00:36:00,
2013-11-11 19:39:00,49.0,30.7,30.06,West,272,2.0,4.0,49,0.00,,,0.00,0,Wunderground v.1.15,2013-11-12 00:39:00,
2013-11-11 19:40:00,49.0,30.7,30.06,West,260,2.0,2.0,49,0.00,,,0.00,0,Wunderground v.1.15,2013-11-12 00:40:00,
2013-11-11 19:43:00,49.0,30.7,30.06,WNW,298,2.0,4.0,49,0.00,,,0.00,0,Wunderground v.1.15,2013-11-12 00:43:00,
2013-11-11 19:44:00,49.0,30.7,30.06,West,260,2.0,4.0,49,0.00,,,0.00,0,Wunderground v.1.15,2013-11-12 00:44:00,
2013-11-11 19:45:00,49.0,30.7,30.06,West,268,2.0,4.0,49,0.00,,,0.00,0,Wunderground v.1.15,2013-11-12 00:45:00,
2013-11-11 19:46:00,49.0,30.7,30.06,West,265,2.0,4.0,49,0.00,,,0.00,0,Wunderground v.1.15,2013-11-12 00:46:00,
2013-11-11 19:50:00,49.0,30.7,30.06,SE,134,3.0,3.0,49,0.00,,,0.00,0,Wunderground v.1.15,2013-11-12 00:50:00,
2013-11-11 19:52:00,49.0,30.7,30.06,West,271,3.0,5.0,49,0.00,,,0.00,0,Wunderground v.1.15,2013-11-12 00:52:00,
2013-11-11 19:55:00,49.0,30.1,30.06,South,177,3.0,5.0,48,0.00,,,0.00,0,Wunderground v.1.15,2013-11-12 00:55:00,
2013-11-11 19:56:00,49.0,30.7,30.06,SE,131,3.0,5.0,49,0.00,,,0.00,0,Wunderground v.1.15,2013-11-12 00:56:00,
2013-11-11 19:57:00,49.1,30.7,30.06,West,262,3.0,5.0,49,0.00,,,0.00,0,Wunderground v.1.15,2013-11-12 00:57:00,
2013-11-11 19:58:00,49.0,30.7,30.06,SSW,206,2.0,5.0,49,0.00,,,0.00,0,Wunderground v.1.15,2013-11-12 00:58:00,
2013-11-11 19:59:00,49.0,30.7,30.06,South,188,2.0,5.0,49,0.00,,,0.00,0,Wunderground v.1.15,2013-11-12 00:59:00,
2013-11-11 20:01:00,49.0,30.7,30.06,SE,128,2.0,4.0,49,0.00,,,0.00,0,Wunderground v.1.15,2013-11-12 01:01:00,
2013-11-11 20:04:00,49.0,30.7,30.06,ESE,119,2.0,4.0,49,0.00,,,0.00,0,Wunderground v.1.15,2013-11-12 01:04:00,
2013-11-11 20:05:00,49.1,30.7,30.06,West,271,2.0,6.0,49,0.00,,,0.00,0,Wunderground v.1.15,2013-11-12 01:05:00,
2013-11-11 20:06:00,49.0,30.7,30.06,West,279,2.0,6.0,49,0.00,,,0.00,0,Wunderground v.1.15,2013-11-12 01:06:00,
2013-11-11 20:07:00,49.0,30.7,30.06,West,271,2.0,6.0,49,0.00,,,0.00,0,Wunderground v.1.15,2013-11-12 01:07:00,
2013-11-11 20:08:00,49.0,30.7,30.06,WSW,248,2.0,6.0,49,0.00,,,0.00,0,Wunderground v.1.15,2013-11-12 01:08:00,
2013-11-11 20:10:00,49.0,31.2,30.06,South,181,2.0,2.0,50,0.00,,,0.00,0,Wunderground v.1.15,2013-11-12 01:10:00,
2013-11-11 20:13:00,49.0,31.2,30.06,NNW,335,2.0,2.0,50,0.00,,,0.00,0,Wunderground v.1.15,2013-11-12 01:13:00,
2013-11-11 20:15:00,48.9,31.1,30.06,West,277,2.0,3.0,50,0.00,,,0.00,0,Wunderground v.1.15,2013-11-12 01:15:00,
2013-11-11 20:17:00,48.9,31.1,30.06,West,271,2.0,3.0,50,0.00,,,0.00,0,Wunderground v.1.15,2013-11-12 01:17:00,
2013-11-11 20:18:00,48.9,31.1,30.06,WSW,254,2.0,3.0,50,0.00,,,0.00,0,Wunderground v.1.15,2013-11-12 01:18:00,
2013-11-11 20:20:00,48.9,31.1,30.06,North,11,2.0,2.0,50,0.00,,,0.00,0,Wunderground v.1.15,2013-11-12 01:20:00,
2013-11-11 20:22:00,48.8,31.0,30.06,ESE,106,2.0,4.0,50,0.00,,,0.00,0,Wunderground v.1.15,2013-11-12 01:22:00,
2013-11-11 20:23:00,48.8,31.0,30.06,West,261,2.0,4.0,50,0.00,,,0.00,0,Wunderground v.1.15,2013-11-12 01:23:00,
2013-11-11 20:26:00,48.9,31.1,30.06,SE,142,2.0,5.0,50,0.00,,,0.00,0,Wunderground v.1.15,2013-11-12 01:26:00,
2013-11-11 20:27:00,48.8,31.0,30.06,SE,131,2.0,7.0,50,0.00,,,0.00,0,Wunderground v.1.15,2013-11-12 01:27:00,
2013-11-11 20:28:00,48.9,31.1,30.06,ESE,115,2.0,7.0,50,0.00,,,0.00,0,Wunderground v.1.15,2013-11-12 01:28:00,
2013-11-11 20:29:00,48.9,31.1,30.06,SSE,148,3.0,7.0,50,0.00,,,0.00,0,Wunderground v.1.15,2013-11-12 01:29:00,
2013-11-11 20:32:00,48.9,31.5,30.06,NNE,28,3.0,3.0,51,0.00,,,0.00,0,Wunderground v.1.15,2013-11-12 01:32:00,
2013-11-11 20:36:00,48.8,31.5,30.06,West,267,3.0,4.0,51,0.00,,,0.00,0,Wunderground v.1.15,2013-11-12 01:36:00,
2013-11-11 20:37:00,48.8,31.5,30.06,SW,234,3.0,4.0,51,0.00,,,0.00,0,Wunderground v.1.15,2013-11-12 01:37:00,
2013-11-11 20:38:00,48.7,31.4,30.06,WNW,285,3.0,4.0,51,0.00,,,0.00,0,Wunderground v.1.15,2013-11-12 01:38:00,
2013-11-11 20:39:00,48.7,31.4,30.06,West,261,3.0,4.0,51,0.00,,,0.00,0,Wunderground v.1.15,2013-11-12 01:39:00,
2013-11-11 20:42:00,48.7,31.4,30.06,SE,132,3.0,5.0,51,0.00,,,0.00,0,Wunderground v.1.15,2013-11-12 01:42:00,
2013-11-11 20:43:00,48.7,31.4,30.07,ESE,120,3.0,5.0,51,0.00,,,0.00,0,Wunderground v.1.15,2013-11-12 01:43:00,
2013-11-11 20:44:00,48.7,31.4,30.07,NNE,20,3.0,5.0,51,0.00,,,0.00,0,Wunderground v.1.15,2013-11-12 01:44:00,
2013-11-11 20:46:00,48.7,31.4,30.07,West,269,3.0,5.0,51,0.00,,,0.00,0,Wunderground v.1.15,2013-11-12 01:46:00,
2013-11-11 20:47:00,48.7,31.4,30.07,West,272,3.0,5.0,51,0.00,,,0.00,0,Wunderground v.1.15,2013-11-12 01:47:00,
2013-11-11 20:48:00,48.7,31.4,30.07,ESE,116,3.0,5.0,51,0.00,,,0.00,0,Wunderground v.1.15,2013-11-12 01:48:00,
2013-11-11 20:50:00,48.6,31.3,30.06,West,266,3.0,3.0,51,0.00,,,0.00,0,Wunderground v.1.15,2013-11-12 01:50:00,
2013-11-11 20:53:00,48.6,31.3,30.06,WSW,257,3.0,3.0,51,0.00,,,0.00,0,Wunderground v.1.15,2013-11-12 01:53:00,
2013-11-11 20:54:00,48.7,31.4,30.06,SE,127,3.0,5.0,51,0.00,,,0.00,0,Wunderground v.1.15,2013-11-12 01:54:00,
2013-11-11 20:59:00,48.8,31.0,30.06,WNW,303,3.0,5.0,50,0.00,,,0.00,0,Wunderground v.1.15,2013-11-12 01:59:00,
2013-11-11 21:01:00,48.8,31.0,30.06,NW,325,3.0,3.0,50,0.00,,,0.00,0,Wunderground v.1.15,2013-11-12 02:01:00,
2013-11-11 21:03:00,48.8,31.0,30.06,West,278,3.0,4.0,50,0.00,,,0.00,0,Wunderground v.1.15,2013-11-12 02:03:00,
2013-11-11 21:06:00,48.9,30.6,30.06,WNW,300,3.0,4.0,49,0.00,,,0.00,0,Wunderground v.1.15,2013-11-12 02:06:00,
2013-11-11 21:08:00,49.0,30.7,30.06,WNW,286,3.0,5.0,49,0.00,,,0.00,0,Wunderground v.1.15,2013-11-12 02:08:00,
2013-11-11 21:09:00,49.0,30.7,30.06,NW,324,3.0,5.0,49,0.00,,,0.00,0,Wunderground v.1.15,2013-11-12 02:09:00,
2013-11-11 21:10:00,49.1,30.7,30.06,WNW,301,3.0,3.0,49,0.00,,,0.00,0,Wunderground v.1.15,2013-11-12 02:10:00,
2013-11-11 21:13:00,49.2,30.3,30.06,SE,133,3.0,3.0,48,0.00,,,0.00,0,Wunderground v.1.15,2013-11-12 02:13:00,
2013-11-11 21:15:00,49.2,30.3,30.06,SE,139,3.0,3.0,48,0.00,,,0.00,0,Wunderground v.1.15,2013-11-12 02:15:00,
2013-11-11 21:16:00,49.2,30.8,30.06,SE,136,2.0,3.0,49,0.00,,,0.00,0,Wunderground v.1.15,2013-11-12 02:16:00,
2013-11-11 21:18:00,49.2,30.3,30.06,WNW,288,2.0,3.0,48,0.00,,,0.00,0,Wunderground v.1.15,2013-11-12 02:18:00,
2013-11-11 21:20:00,49.2,30.3,30.06,West,267,2.0,4.0,48,0.00,,,0.00,0,Wunderground v.1.15,2013-11-12 02:20:00,
2013-11-11 21:22:00,49.2,30.8,30.05,WSW,257,2.0,4.0,49,0.00,,,0.00,0,Wunderground v.1.15,2013-11-12 02:22:00,
2013-11-11 21:24:00,49.2,30.8,30.05,WSW,241,1.0,4.0,49,0.00,,,0.00,0,Wunderground v.1.15,2013-11-12 02:24:00,
2013-11-11 21:25:00,49.2,30.8,30.05,WSW,241,1.0,4.0,49,0.00,,,0.00,0,Wunderground v.1.15,2013-11-12 02:25:00,
2013-11-11 21:27:00,49.2,30.8,30.05,WNW,299,1.0,4.0,49,0.00,,,0.00,0,Wunderground v.1.15,2013-11-12 02:27:00,
2013-11-11 21:28:00,49.2,30.8,30.05,WSW,251,1.0,4.0,49,0.00,,,0.00,0,Wunderground v.1.15,2013-11-12 02:28:00,
2013-11-11 21:30:00,49.2,30.8,30.05,SSE,161,1.0,1.0,49,0.00,,,0.00,0,Wunderground v.1.15,2013-11-12 02:30:00,
2013-11-11 21:32:00,49.1,30.7,30.05,SE,134,1.0,2.0,49,0.00,,,0.00,0,Wunderground v.1.15,2013-11-12 02:32:00,
2013-11-11 21:33:00,49.1,30.7,30.05,SE,134,1.0,2.0,49,0.00,,,0.00,0,Wunderground v.1.15,2013-11-12 02:33:00,
2013-11-11 21:34:00,49.1,30.7,30.05,SE,129,1.0,3.0,49,0.00,,,0.00,0,Wunderground v.1.15,2013-11-12 02:34:00,
2013-11-11 21:39:00,49.0,30.7,30.05,SE,128,2.0,4.0,49,0.00,,,0.00,0,Wunderground v.1.15,2013-11-12 02:39:00,
2013-11-11 21:41:00,49.0,31.2,30.05,SSE,155,2.0,2.0,50,0.00,,,0.00,0,Wunderground v.1.15,2013-11-12 02:41:00,
2013-11-11 21:45:00,48.9,31.1,30.06,West,270,2.0,2.0,50,0.00,,,0.00,0,Wunderground v.1.15,2013-11-12 02:45:00,
2013-11-11 21:46:00,48.8,31.0,30.05,West,274,1.0,2.0,50,0.00,,,0.00,0,Wunderground v.1.15,2013-11-12 02:46:00,
2013-11-11 21:47:00,48.8,31.0,30.05,WNW,284,1.0,2.0,50,0.00,,,0.00,0,Wunderground v.1.15,2013-11-12 02:47:00,
2013-11-11 21:48:00,48.8,31.0,30.05,West,273,2.0,2.0,50,0.00,,,0.00,0,Wunderground v.1.15,2013-11-12 02:48:00,
2013-11-11 21:52:00,48.6,31.3,30.06,SE,138,2.0,2.0,51,0.00,,,0.00,0,Wunderground v.1.15,2013-11-12 02:52:00,
2013-11-11 21:54:00,48.5,31.2,30.06,SE,127,2.0,4.0,51,0.00,,,0.00,0,Wunderground v.1.15,2013-11-12 02:54:00,
2013-11-11 21:57:00,48.4,31.1,30.05,SE,130,2.0,4.0,51,0.00,,,0.00,0,Wunderground v.1.15,2013-11-12 02:57:00,
2013-11-11 21:59:00,48.3,31.5,30.05,SE,131,2.0,4.0,52,0.00,,,0.00,0,Wunderground v.1.15,2013-11-12 02:59:00,
2013-11-11 22:02:00,48.1,31.3,30.05,East,91,2.0,5.0,52,0.00,,,0.00,0,Wunderground v.1.15,2013-11-12 03:02:00,
2013-11-11 22:03:00,48.1,31.3,30.05,South,182,2.0,5.0,52,0.00,,,0.00,0,Wunderground v.1.15,2013-11-12 03:03:00,
2013-11-11 22:04:00,48.1,31.3,30.05,West,269,2.0,5.0,52,0.00,,,0.00,0,Wunderground v.1.15,2013-11-12 03:04:00,
2013-11-11 22:06:00,48.1,31.3,30.05,SSE,156,2.0,5.0,52,0.00,,,0.00,0,Wunderground v.1.15,2013-11-12 03:06:00,
2013-11-11 22:09:00,48.1,31.3,30.05,West,278,2.0,5.0,52,0.00,,,0.00,0,Wunderground v.1.15,2013-11-12 03:09:00,
2013-11-11 22:12:00,48.1,30.8,30.05,West,272,2.0,3.0,51,0.00,,,0.00,0,Wunderground v.1.15,2013-11-12 03:12:00,
2013-11-11 22:13:00,48.1,31.3,30.05,West,271,2.0,3.0,52,0.00,,,0.00,0,Wunderground v.1.15,2013-11-12 03:13:00,
2013-11-11 22:16:00,48.1,30.8,30.05,WNW,286,1.0,3.0,51,0.00,,,0.00,0,Wunderground v.1.15,2013-11-12 03:16:00,
2013-11-11 22:17:00,48.1,31.3,30.05,West,273,1.0,3.0,52,0.00,,,0.00,0,Wunderground v.1.15,2013-11-12 03:17:00,
2013-11-11 22:18:00,48.1,30.8,30.05,West,269,2.0,3.0,51,0.00,,,0.00,0,Wunderground v.1.15,2013-11-12 03:18:00,
2013-11-11 22:21:00,48.2,30.9,30.05,West,269,2.0,3.0,51,0.00,,,0.00,0,Wunderground v.1.15,2013-11-12 03:21:00,
2013-11-11 22:22:00,48.2,30.9,30.05,WSW,240,2.0,3.0,51,0.00,,,0.00,0,Wunderground v.1.15,2013-11-12 03:22:00,
2013-11-11 22:24:00,48.2,31.4,30.05,West,274,2.0,3.0,52,0.00,,,0.00,0,Wunderground v.1.15,2013-11-12 03:24:00,
2013-11-11 22:25:00,48.2,31.4,30.05,West,260,2.0,3.0,52,0.00,,,0.00,0,Wunderground v.1.15,2013-11-12 03:25:00,
2013-11-11 22:27:00,48.2,31.4,30.05,West,260,2.0,3.0,52,0.00,,,0.00,0,Wunderground v.1.15,2013-11-12 03:27:00,
2013-11-11 22:28:00,48.2,31.4,30.05,West,259,2.0,3.0,52,0.00,,,0.00,0,Wunderground v.1.15,2013-11-12 03:28:00,
2013-11-11 22:30:00,48.1,31.3,30.05,West,263,2.0,2.0,52,0.00,,,0.00,0,Wunderground v.1.15,2013-11-12 03:30:00,
2013-11-11 22:31:00,48.1,31.3,30.05,West,262,2.0,2.0,52,0.00,,,0.00,0,Wunderground v.1.15,2013-11-12 03:31:00,
2013-11-11 22:36:00,48.0,31.7,30.05,West,269,2.0,4.0,53,0.00,,,0.00,0,Wunderground v.1.15,2013-11-12 03:36:00,
2013-11-11 22:38:00,48.0,31.7,30.05,WNW,287,2.0,4.0,53,0.00,,,0.00,0,Wunderground v.1.15,2013-11-12 03:38:00,
2013-11-11 22:40:00,48.0,31.7,30.05,WNW,290,2.0,2.0,53,0.00,,,0.00,0,Wunderground v.1.15,2013-11-12 03:40:00,
2013-11-11 22:42:00,48.0,31.2,30.04,WNW,291,1.0,2.0,52,0.00,,,0.00,0,Wunderground v.1.15,2013-11-12 03:42:00,
2013-11-11 22:45:00,48.0,30.7,30.05,WNW,286,2.0,3.0,51,0.00,,,0.00,0,Wunderground v.1.15,2013-11-12 03:45:00,
2013-11-11 22:46:00,48.1,30.3,30.05,North,355,2.0,3.0,50,0.00,,,0.00,0,Wunderground v.1.15,2013-11-12 03:46:00,
2013-11-11 22:47:00,48.1,30.3,30.05,WNW,289,2.0,3.0,50,0.00,,,0.00,0,Wunderground v.1.15,2013-11-12 03:47:00,
2013-11-11 22:49:00,48.2,30.4,30.05,WNW,294,2.0,3.0,50,0.00,,,0.00,0,Wunderground v.1.15,2013-11-12 03:49:00,
2013-11-11 22:52:00,48.2,29.9,30.05,West,279,3.0,5.0,49,0.00,,,0.00,0,Wunderground v.1.15,2013-11-12 03:52:00,
2013-11-11 22:54:00,48.3,30.0,30.05,WNW,300,3.0,5.0,49,0.00,,,0.00,0,Wunderground v.1.15,2013-11-12 03:54:00,
2013-11-11 22:55:00,48.3,30.0,30.05,WNW,292,3.0,5.0,49,0.00,,,0.00,0,Wunderground v.1.15,2013-11-12 03:55:00,
2013-11-11 22:56:00,48.3,30.0,30.04,West,277,3.0,5.0,49,0.00,,,0.00,0,Wunderground v.1.15,2013-11-12 03:56:00,
2013-11-11 22:58:00,48.3,30.0,30.04,West,267,3.0,5.0,49,0.00,,,0.00,0,Wunderground v.1.15,2013-11-12 03:58:00,
2013-11-11 23:02:00,48.5,29.2,30.04,NW,324,3.0,10.0,47,0.00,,,0.00,0,Wunderground v.1.15,2013-11-12 04:02:00,
2013-11-11 23:03:00,48.5,29.7,30.04,WNW,294,3.0,10.0,48,0.00,,,0.00,0,Wunderground v.1.15,2013-11-12 04:03:00,
2013-11-11 23:05:00,48.6,29.8,30.04,NW,324,3.0,10.0,48,0.00,,,0.00,0,Wunderground v.1.15,2013-11-12 04:05:00,
2013-11-11 23:08:00,48.6,29.3,30.04,North,355,4.0,10.0,47,0.00,,,0.00,0,Wunderground v.1.15,2013-11-12 04:08:00,
2013-11-11 23:09:00,48.6,29.3,30.04,North,11,4.0,10.0,47,0.00,,,0.00,0,Wunderground v.1.15,2013-11-12 04:09:00,
2013-11-11 23:11:00,48.7,29.4,30.04,WNW,285,4.0,6.0,47,0.00,,,0.00,0,Wunderground v.1.15,2013-11-12 04:11:00,
2013-11-11 23:12:00,48.7,29.4,30.04,WNW,299,4.0,6.0,47,0.00,,,0.00,0,Wunderground v.1.15,2013-11-12 04:12:00,
2013-11-11 23:13:00,48.7,29.4,30.04,NW,307,4.0,6.0,47,0.00,,,0.00,0,Wunderground v.1.15,2013-11-12 04:13:00,
2013-11-11 23:14:00,48.7,29.4,30.04,WNW,286,4.0,6.0,47,0.00,,,0.00,0,Wunderground v.1.15,2013-11-12 04:14:00,
2013-11-11 23:19:00,48.8,29.4,30.05,WNW,290,5.0,7.0,47,0.00,,,0.00,0,Wunderground v.1.15,2013-11-12 04:19:00,
2013-11-11 23:20:00,48.8,29.4,30.05,West,267,5.0,6.0,47,0.00,,,0.00,0,Wunderground v.1.15,2013-11-12 04:20:00,
2013-11-11 23:21:00,48.8,29.4,30.05,NW,317,5.0,6.0,47,0.00,,,0.00,0,Wunderground v.1.15,2013-11-12 04:21:00,
2013-11-11 23:23:00,48.9,29.5,30.05,WNW,303,5.0,6.0,47,0.00,,,0.00,0,Wunderground v.1.15,2013-11-12 04:23:00,
2013-11-11 23:25:00,48.9,29.5,30.05,NW,305,5.0,6.0,47,0.00,,,0.00,0,Wunderground v.1.15,2013-11-12 04:25:00,
2013-11-11 23:26:00,48.8,30.0,30.05,WNW,300,5.0,6.0,48,0.00,,,0.00,0,Wunderground v.1.15,2013-11-12 04:26:00,
2013-11-11 23:28:00,48.8,30.0,30.05,NW,317,4.0,6.0,48,0.00,,,0.00,0,Wunderground v.1.15,2013-11-12 04:28:00,
2013-11-11 23:30:00,48.8,30.0,30.05,West,266,4.0,5.0,48,0.00,,,0.00,0,Wunderground v.1.15,2013-11-12 04:30:00,
2013-11-11 23:31:00,48.8,30.0,30.05,North,360,4.0,5.0,48,0.00,,,0.00,0,Wunderground v.1.15,2013-11-12 04:31:00,
2013-11-11 23:35:00,48.8,30.0,30.05,WNW,302,4.0,8.0,48,0.00,,,0.00,0,Wunderground v.1.15,2013-11-12 04:35:00,
2013-11-11 23:37:00,48.7,29.9,30.05,West,271,4.0,8.0,48,0.00,,,0.00,0,Wunderground v.1.15,2013-11-12 04:37:00,
2013-11-11 23:40:00,48.6,30.3,30.05,NNW,329,5.0,5.0,49,0.00,,,0.00,0,Wunderground v.1.15,2013-11-12 04:40:00,
2013-11-11 23:41:00,48.6,30.3,30.05,NNW,335,5.0,9.0,49,0.00,,,0.00,0,Wunderground v.1.15,2013-11-12 04:41:00,
2013-11-11 23:43:00,48.5,30.2,30.06,NW,320,5.0,9.0,49,0.00,,,0.00,0,Wunderground v.1.15,2013-11-12 04:43:00,
2013-11-11 23:45:00,48.4,30.6,30.06,NW,309,5.0,9.0,50,0.00,,,0.00,0,Wunderground v.1.15,2013-11-12 04:45:00,
2013-11-11 23:50:00,48.2,30.9,30.05,NW,307,6.0,8.0,51,0.00,,,0.00,0,Wunderground v.1.15,2013-11-12 04:50:00,
2013-11-11 23:51:00,48.2,30.9,30.05,NW,311,6.0,8.0,51,0.00,,,0.00,0,Wunderground v.1.15,2013-11-12 04:51:00,
2013-11-11 23:53:00,48.1,31.3,30.05,NNW,338,6.0,8.0,52,0.00,,,0.00,0,Wunderground v.1.15,2013-11-12 04:53:00,
2013-11-11 23:56:00,48.0,31.7,30.05,NNW,340,7.0,8.0,53,0.00,,,0.00,0,Wunderground v.1.15,2013-11-12 04:56:00,
2013-11-11 23:57:00,48.0,31.7,30.05,NW,304,7.0,8.0,53,0.00,,,0.00,0,Wunderground v.1.15,2013-11-12 04:57:00,
2013-11-11 23:58:00,47.9,31.6,30.05,NNW,346,7.0,8.0,53,0.00,,,0.00,0,Wunderground v.1.15,2013-11-12 04:58:00,
2013-11-11 23:59:00,47.9,31.6,30.05,WNW,296,7.0,8.0,53,0.00,,,0.00,0,Wunderground v.1.15,2013-11-12 04:59:00,